Wetterdaten: Samstag, 28.09.2019
Datum Zeit Temp. Aussen Temp. o. S. +5cm Feuchte Auss Luftdruck Regen Sonnenschein Regendauer Solar Windben Empfang
28.09.2019 00:00 14,7 C 14,4 C 16,1 C 91 % 1009,5 hPa 0,0 l/m 0 min 0 min 0 W/m 12,9 km/h (3 Bft) 100,00 %
28.09.2019 00:02 14,7 C 14,4 C 16,1 C 91 % 1009,6 hPa 0,0 l/m 0 min 0 min 0 W/m 19,3 km/h (3 Bft) 97,50 %
28.09.2019 00:04 14,7 C 14,4 C 16,1 C 91 % 1009,5 hPa 0,0 l/m 0 min 0 min 0 W/m 22,5 km/h (4 Bft) 97,87 %
28.09.2019 00:08 14,7 C 14,4 C 16,1 C 90 % 1009,5 hPa 0,0 l/m 0 min 0 min 0 W/m 19,3 km/h (3 Bft) 97,87 %
28.09.2019 00:10 14,7 C 14,4 C 16,1 C 90 % 1009,4 hPa 0,0 l/m 0 min 0 min 0 W/m 19,3 km/h (3 Bft) 100,00 %
28.09.2019 00:12 14,8 C 14,4 C 16,1 C 90 % 1009,3 hPa 0,0 l/m 0 min 0 min 0 W/m 16,1 km/h (3 Bft) 97,87 %
28.09.2019 00:14 14,8 C 14,4 C 16,1 C 90 % 1009,4 hPa 0,0 l/m 0 min 0 min 0 W/m 22,5 km/h (4 Bft) 97,87 %
28.09.2019 00:16 14,8 C 14,4 C 16,1 C 90 % 1009,4 hPa 0,0 l/m 0 min 0 min 0 W/m 25,7 km/h (4 Bft) 97,87 %
28.09.2019 00:18 14,8 C 14,4 C 16,1 C 90 % 1009,4 hPa 0,0 l/m 0 min 0 min 0 W/m 25,7 km/h (4 Bft) 95,74 %
28.09.2019 00:20 14,9 C 14,4 C 16,1 C 89 % 1009,4 hPa 0,0 l/m 0 min 0 min 0 W/m 16,1 km/h (3 Bft) 95,65 %
28.09.2019 00:22 14,9 C 14,4 C 16,1 C 89 % 1009,4 hPa 0,0 l/m 0 min 0 min 0 W/m 29,0 km/h (5 Bft) 95,74 %
28.09.2019 00:24 14,9 C 14,4 C 16,1 C 89 % 1009,5 hPa 0,0 l/m 0 min 0 min 0 W/m 16,1 km/h (3 Bft) 97,87 %
28.09.2019 00:26 15,0 C 14,4 C 16,1 C 88 % 1009,4 hPa 0,0 l/m 0 min 0 min 0 W/m 22,5 km/h (4 Bft) 97,87 %
28.09.2019 00:28 15,0 C 15,0 C 16,1 C 88 % 1009,4 hPa 0,0 l/m 0 min 0 min 0 W/m 25,7 km/h (4 Bft) 95,74 %
28.09.2019 00:30 15,0 C 15,0 C 16,1 C 88 % 1009,5 hPa 0,0 l/m 0 min 0 min 0 W/m 25,7 km/h (4 Bft) 97,87 %
28.09.2019 00:32 15,1 C 14,4 C 16,1 C 88 % 1009,5 hPa 0,0 l/m 0 min 0 min 0 W/m 16,1 km/h (3 Bft) 97,83 %
28.09.2019 00:34 15,1 C 14,4 C 16,1 C 88 % 1009,4 hPa 0,0 l/m 0 min 0 min 0 W/m 22,5 km/h (4 Bft) 95,74 %
28.09.2019 00:36 15,1 C 14,4 C 16,1 C 88 % 1009,5 hPa 0,0 l/m 0 min 0 min 0 W/m 19,3 km/h (3 Bft) 97,87 %
28.09.2019 00:38 15,2 C 15,0 C 16,1 C 87 % 1009,5 hPa 0,0 l/m 0 min 0 min 0 W/m 22,5 km/h (4 Bft) 95,74 %
28.09.2019 00:40 15,2 C 15,0 C 16,1 C 87 % 1009,5 hPa 0,0 l/m 0 min 0 min 0 W/m 19,3 km/h (3 Bft) 97,87 %
28.09.2019 00:42 15,2 C 15,0 C 16,1 C 87 % 1009,6 hPa 0,0 l/m 0 min 0 min 0 W/m 22,5 km/h (4 Bft) 95,74 %
28.09.2019 00:44 15,2 C 15,0 C 16,1 C 87 % 1009,5 hPa 0,0 l/m 0 min 0 min 0 W/m 25,7 km/h (4 Bft) 97,83 %
28.09.2019 00:46 15,3 C 15,0 C 16,1 C 87 % 1009,5 hPa 0,0 l/m 0 min 0 min 0 W/m 25,7 km/h (4 Bft) 95,74 %
28.09.2019 00:48 15,3 C 15,0 C 16,1 C 87 % 1009,5 hPa 0,0 l/m 0 min 0 min 0 W/m 19,3 km/h (3 Bft) 97,87 %
28.09.2019 00:50 15,3 C 15,0 C 16,1 C 87 % 1009,5 hPa 0,0 l/m 0 min 0 min 0 W/m 19,3 km/h (3 Bft) 97,87 %
28.09.2019 00:52 15,4 C 15,0 C 16,1 C 87 % 1009,5 hPa 0,0 l/m 0 min 0 min 0 W/m 22,5 km/h (4 Bft) 97,87 %
28.09.2019 00:54 15,4 C 15,0 C 16,1 C 87 % 1009,4 hPa 0,0 l/m 0 min 0 min 0 W/m 19,3 km/h (3 Bft) 97,87 %
28.09.2019 00:56 15,4 C 15,0 C 16,1 C 87 % 1009,5 hPa 0,0 l/m 0 min 0 min 0 W/m 16,1 km/h (3 Bft) 97,83 %
28.09.2019 00:58 15,4 C 15,0 C 16,1 C 86 % 1009,4 hPa 0,0 l/m 0 min 0 min 0 W/m 12,9 km/h (3 Bft) 97,87 %
28.09.2019 01:00 15,4 C 15,0 C 16,1 C 86 % 1009,5 hPa 0,0 l/m 0 min 0 min 0 W/m 29,0 km/h (5 Bft) 97,87 %
28.09.2019 01:02 15,4 C 15,0 C 16,1 C 86 % 1009,4 hPa 0,0 l/m 0 min 0 min 0 W/m 19,3 km/h (3 Bft) 97,87 %
28.09.2019 01:04 15,4 C 15,0 C 16,1 C 86 % 1009,5 hPa 0,0 l/m 0 min 0 min 0 W/m 19,3 km/h (3 Bft) 100,00 %
28.09.2019 01:06 15,4 C 15,0 C 16,1 C 86 % 1009,5 hPa 0,0 l/m 0 min 0 min 0 W/m 19,3 km/h (3 Bft) 100,00 %
28.09.2019 01:08 15,4 C 14,4 C 16,1 C 86 % 1009,5 hPa 0,0 l/m 0 min 0 min 0 W/m 16,1 km/h (3 Bft) 97,83 %
28.09.2019 01:10 15,4 C 14,4 C 16,1 C 86 % 1009,5 hPa 0,0 l/m 0 min 0 min 0 W/m 22,5 km/h (4 Bft) 100,00 %
28.09.2019 01:12 15,4 C 14,4 C 16,1 C 86 % 1009,5 hPa 0,0 l/m 0 min 0 min 0 W/m 12,9 km/h (3 Bft) 97,87 %
28.09.2019 01:14 15,4 C 14,4 C 16,1 C 86 % 1009,4 hPa 0,0 l/m 0 min 0 min 0 W/m 16,1 km/h (3 Bft) 100,00 %
28.09.2019 01:16 15,4 C 14,4 C 16,1 C 86 % 1009,5 hPa 0,0 l/m 0 min 0 min 0 W/m 29,0 km/h (5 Bft) 100,00 %
28.09.2019 01:18 15,4 C 14,4 C 16,1 C 86 % 1009,5 hPa 0,0 l/m 0 min 0 min 0 W/m 25,7 km/h (4 Bft) 100,00 %
28.09.2019 01:20 15,4 C 14,4 C 16,1 C 86 % 1009,5 hPa 0,0 l/m 0 min 0 min 0 W/m 25,7 km/h (4 Bft) 100,00 %
28.09.2019 01:22 15,4 C 14,4 C 16,1 C 86 % 1009,5 hPa 0,0 l/m 0 min 0 min 0 W/m 22,5 km/h (4 Bft) 100,00 %
28.09.2019 01:24 15,4 C 14,4 C 16,1 C 86 % 1009,5 hPa 0,0 l/m 0 min 0 min 0 W/m 29,0 km/h (5 Bft) 100,00 %
28.09.2019 01:26 15,4 C 14,4 C 16,1 C 86 % 1009,5 hPa 0,0 l/m 0 min 0 min 0 W/m 16,1 km/h (3 Bft) 100,00 %
28.09.2019 01:28 15,4 C 14,4 C 16,1 C 86 % 1009,5 hPa 0,0 l/m 0 min 0 min 0 W/m 25,7 km/h (4 Bft) 100,00 %
28.09.2019 01:30 15,4 C 14,4 C 16,1 C 86 % 1009,4 hPa 0,0 l/m 0 min 0 min 0 W/m 25,7 km/h (4 Bft) 100,00 %
28.09.2019 01:32 15,4 C 14,4 C 16,1 C 86 % 1009,4 hPa 0,0 l/m 0 min 0 min 0 W/m 25,7 km/h (4 Bft) 100,00 %
28.09.2019 01:34 15,4 C 14,4 C 16,1 C 86 % 1009,5 hPa 0,0 l/m 0 min 0 min 0 W/m 29,0 km/h (5 Bft) 100,00 %
28.09.2019 01:36 15,4 C 14,4 C 16,1 C 86 % 1009,6 hPa 0,0 l/m 0 min 0 min 0 W/m 22,5 km/h (4 Bft) 100,00 %
28.09.2019 01:38 15,4 C 14,4 C 16,1 C 86 % 1009,7 hPa 0,0 l/m 0 min 0 min 0 W/m 19,3 km/h (3 Bft) 100,00 %
28.09.2019 01:40 15,4 C 14,4 C 16,1 C 86 % 1009,7 hPa 0,0 l/m 0 min 0 min 0 W/m 32,2 km/h (5 Bft) 100,00 %
28.09.2019 01:42 15,4 C 14,4 C 16,1 C 86 % 1009,7 hPa 0,0 l/m 0 min 0 min 0 W/m 22,5 km/h (4 Bft) 95,65 %
28.09.2019 01:44 15,4 C 14,4 C 16,1 C 86 % 1009,8 hPa 0,0 l/m 0 min 0 min 0 W/m 25,7 km/h (4 Bft) 95,74 %
28.09.2019 01:46 15,4 C 14,4 C 16,1 C 86 % 1009,7 hPa 0,0 l/m 0 min 0 min 0 W/m 32,2 km/h (5 Bft) 97,87 %
28.09.2019 01:48 15,4 C 14,4 C 16,1 C 86 % 1009,7 hPa 0,0 l/m 0 min 0 min 0 W/m 25,7 km/h (4 Bft) 95,74 %
28.09.2019 01:50 15,4 C 14,4 C 16,1 C 86 % 1009,8 hPa 0,0 l/m 0 min 0 min 0 W/m 22,5 km/h (4 Bft) 100,00 %
28.09.2019 01:52 15,4 C 14,4 C 16,1 C 86 % 1009,8 hPa 0,0 l/m 0 min 0 min 0 W/m 29,0 km/h (5 Bft) 95,74 %
28.09.2019 01:54 15,4 C 14,4 C 16,1 C 86 % 1009,9 hPa 0,0 l/m 0 min 0 min 0 W/m 29,0 km/h (5 Bft) 97,83 %
28.09.2019 01:56 15,3 C 14,4 C 16,1 C 86 % 1009,9 hPa 0,0 l/m 0 min 0 min 0 W/m 19,3 km/h (3 Bft) 97,87 %
28.09.2019 01:58 15,3 C 14,4 C 16,1 C 86 % 1010,0 hPa 0,0 l/m 0 min 0 min 0 W/m 29,0 km/h (5 Bft) 97,87 %
28.09.2019 02:00 15,3 C 14,4 C 16,1 C 86 % 1010,0 hPa 0,0 l/m 0 min 0 min 0 W/m 19,3 km/h (3 Bft) 97,87 %
28.09.2019 02:02 15,3 C 14,4 C 16,1 C 86 % 1010,0 hPa 0,0 l/m 0 min 0 min 0 W/m 29,0 km/h (5 Bft) 95,74 %
28.09.2019 02:04 15,3 C 14,4 C 16,1 C 86 % 1010,0 hPa 0,0 l/m 0 min 0 min 0 W/m 35,4 km/h (5 Bft) 95,74 %
28.09.2019 02:06 15,3 C 14,4 C 16,1 C 86 % 1010,0 hPa 0,0 l/m 0 min 0 min 0 W/m 25,7 km/h (4 Bft) 97,83 %
28.09.2019 02:08 15,3 C 14,4 C 16,1 C 86 % 1010,0 hPa 0,0 l/m 0 min 0 min 0 W/m 22,5 km/h (4 Bft) 95,74 %
28.09.2019 02:10 15,3 C 14,4 C 16,1 C 86 % 1010,1 hPa 0,0 l/m 0 min 0 min 0 W/m 22,5 km/h (4 Bft) 97,87 %
28.09.2019 02:12 15,3 C 14,4 C 16,1 C 86 % 1010,1 hPa 0,0 l/m 0 min 0 min 0 W/m 22,5 km/h (4 Bft) 97,87 %
28.09.2019 02:14 15,2 C 14,4 C 16,1 C 86 % 1010,1 hPa 0,0 l/m 0 min 0 min 0 W/m 16,1 km/h (3 Bft) 97,87 %
28.09.2019 02:16 15,2 C 14,4 C 16,1 C 86 % 1010,0 hPa 0,0 l/m 0 min 0 min 0 W/m 19,3 km/h (3 Bft) 100,00 %
28.09.2019 02:18 15,2 C 14,4 C 16,1 C 86 % 1010,1 hPa 0,0 l/m 0 min 0 min 0 W/m 29,0 km/h (5 Bft) 97,83 %
28.09.2019 02:20 15,2 C 14,4 C 16,1 C 86 % 1010,1 hPa 0,0 l/m 0 min 0 min 0 W/m 25,7 km/h (4 Bft) 97,87 %
28.09.2019 02:22 15,2 C 14,4 C 16,1 C 86 % 1010,1 hPa 0,0 l/m 0 min 0 min 0 W/m 19,3 km/h (3 Bft) 97,87 %
28.09.2019 02:24 15,2 C 14,4 C 16,1 C 86 % 1010,2 hPa 0,0 l/m 0 min 0 min 0 W/m 16,1 km/h (3 Bft) 97,87 %
28.09.2019 02:26 15,2 C 14,4 C 16,1 C 86 % 1010,2 hPa 0,0 l/m 0 min 0 min 0 W/m 16,1 km/h (3 Bft) 97,87 %
28.09.2019 02:28 15,2 C 14,4 C 16,1 C 86 % 1010,2 hPa 0,0 l/m 0 min 0 min 0 W/m 19,3 km/h (3 Bft) 97,87 %
28.09.2019 02:30 15,2 C 14,4 C 16,1 C 86 % 1010,2 hPa 0,0 l/m 0 min 0 min 0 W/m 29,0 km/h (5 Bft) 95,65 %
28.09.2019 02:32 15,2 C 14,4 C 16,1 C 86 % 1010,2 hPa 0,0 l/m 0 min 0 min 0 W/m 16,1 km/h (3 Bft) 97,87 %
28.09.2019 02:34 15,1 C 14,4 C 16,1 C 86 % 1010,2 hPa 0,0 l/m 0 min 0 min 0 W/m 22,5 km/h (4 Bft) 97,87 %
28.09.2019 02:36 15,1 C 14,4 C 16,1 C 86 % 1010,2 hPa 0,0 l/m 0 min 0 min 0 W/m 25,7 km/h (4 Bft) 97,87 %
28.09.2019 02:38 15,1 C 14,4 C 16,1 C 86 % 1010,2 hPa 0,0 l/m 0 min 0 min 0 W/m 25,7 km/h (4 Bft) 95,74 %
28.09.2019 02:40 15,1 C 13,9 C 16,1 C 86 % 1010,2 hPa 0,0 l/m 0 min 0 min 0 W/m 19,3 km/h (3 Bft) 93,62 %
28.09.2019 02:42 15,1 C 13,9 C 16,1 C 86 % 1010,2 hPa 0,0 l/m 0 min 0 min 0 W/m 32,2 km/h (5 Bft) 95,65 %
28.09.2019 02:44 15,1 C 13,9 C 16,1 C 86 % 1010,2 hPa 0,0 l/m 0 min 0 min 0 W/m 25,7 km/h (4 Bft) 95,74 %
28.09.2019 02:46 15,1 C 13,9 C 16,1 C 86 % 1010,1 hPa 0,0 l/m 0 min 0 min 0 W/m 22,5 km/h (4 Bft) 97,87 %
28.09.2019 02:48 15,0 C 13,9 C 16,1 C 86 % 1010,2 hPa 0,0 l/m 0 min 0 min 0 W/m 19,3 km/h (3 Bft) 97,87 %
28.09.2019 02:50 15,0 C 13,9 C 16,1 C 86 % 1010,2 hPa 0,0 l/m 0 min 0 min 0 W/m 19,3 km/h (3 Bft) 95,74 %
28.09.2019 02:52 15,0 C 13,9 C 16,1 C 86 % 1010,2 hPa 0,0 l/m 0 min 0 min 0 W/m 12,9 km/h (3 Bft) 93,48 %
28.09.2019 02:54 15,0 C 13,9 C 16,1 C 86 % 1010,1 hPa 0,0 l/m 0 min 0 min 0 W/m 16,1 km/h (3 Bft) 95,74 %
28.09.2019 02:56 14,9 C 13,9 C 16,1 C 86 % 1010,1 hPa 0,0 l/m 0 min 0 min 0 W/m 22,5 km/h (4 Bft) 97,87 %
28.09.2019 02:58 14,9 C 13,9 C 16,1 C 86 % 1010,1 hPa 0,0 l/m 0 min 0 min 0 W/m 25,7 km/h (4 Bft) 97,87 %
28.09.2019 03:00 14,9 C 13,9 C 16,1 C 86 % 1010,1 hPa 0,0 l/m 0 min 0 min 0 W/m 16,1 km/h (3 Bft) 93,62 %
28.09.2019 03:02 14,9 C 13,9 C 16,1 C 86 % 1010,1 hPa 0,0 l/m 0 min 0 min 0 W/m 19,3 km/h (3 Bft) 93,62 %
28.09.2019 03:04 14,9 C 13,9 C 16,1 C 86 % 1010,1 hPa 0,0 l/m 0 min 0 min 0 W/m 12,9 km/h (3 Bft) 97,83 %
28.09.2019 03:06 14,9 C 13,9 C 16,1 C 86 % 1010,2 hPa 0,0 l/m 0 min 0 min 0 W/m 16,1 km/h (3 Bft) 97,87 %
28.09.2019 03:08 14,9 C 13,9 C 16,1 C 86 % 1010,2 hPa 0,0 l/m 0 min 0 min 0 W/m 16,1 km/h (3 Bft) 95,74 %
28.09.2019 03:10 14,8 C 13,9 C 16,1 C 87 % 1010,2 hPa 0,0 l/m 0 min 0 min 0 W/m 22,5 km/h (4 Bft) 95,74 %
28.09.2019 03:12 14,8 C 13,9 C 16,1 C 86 % 1010,2 hPa 0,0 l/m 0 min 0 min 0 W/m 25,7 km/h (4 Bft) 93,62 %
28.09.2019 03:14 14,8 C 13,9 C 16,1 C 87 % 1010,2 hPa 0,0 l/m 0 min 0 min 0 W/m 16,1 km/h (3 Bft) 95,74 %
28.09.2019 03:16 14,8 C 13,9 C 16,1 C 87 % 1010,3 hPa 0,0 l/m 0 min 0 min 0 W/m 25,7 km/h (4 Bft) 95,65 %
28.09.2019 03:18 14,8 C 14,4 C 16,1 C 87 % 1010,2 hPa 0,0 l/m 0 min 0 min 0 W/m 19,3 km/h (3 Bft) 95,74 %
28.09.2019 03:20 14,8 C 14,4 C 16,1 C 87 % 1010,1 hPa 0,0 l/m 0 min 0 min 0 W/m 22,5 km/h (4 Bft) 93,62 %
28.09.2019 03:22 14,8 C 14,4 C 16,1 C 87 % 1010,2 hPa 0,0 l/m 0 min 0 min 0 W/m 35,4 km/h (5 Bft) 93,62 %
28.09.2019 03:24 14,8 C 14,4 C 16,1 C 87 % 1010,2 hPa 0,0 l/m 0 min 0 min 0 W/m 22,5 km/h (4 Bft) 95,74 %
28.09.2019 03:26 14,8 C 14,4 C 16,1 C 87 % 1010,2 hPa 0,0 l/m 0 min 0 min 0 W/m 25,7 km/h (4 Bft) 95,74 %
28.09.2019 03:28 14,8 C 14,4 C 16,1 C 87 % 1010,2 hPa 0,0 l/m 0 min 0 min 0 W/m 19,3 km/h (3 Bft) 97,83 %
28.09.2019 03:30 14,8 C 14,4 C 16,1 C 87 % 1010,2 hPa 0,0 l/m 0 min 0 min 0 W/m 25,7 km/h (4 Bft) 97,87 %
28.09.2019 03:32 14,8 C 13,9 C 16,1 C 87 % 1010,2 hPa 0,0 l/m 0 min 0 min 0 W/m 19,3 km/h (3 Bft) 97,87 %
28.09.2019 03:34 14,8 C 13,9 C 16,1 C 87 % 1010,2 hPa 0,0 l/m 0 min 0 min 0 W/m 19,3 km/h (3 Bft) 95,74 %
28.09.2019 03:36 14,8 C 13,9 C 16,1 C 87 % 1010,3 hPa 0,0 l/m 0 min 0 min 0 W/m 25,7 km/h (4 Bft) 97,87 %
28.09.2019 03:38 14,8 C 13,9 C 16,1 C 87 % 1010,2 hPa 0,0 l/m 0 min 0 min 0 W/m 19,3 km/h (3 Bft) 97,87 %
28.09.2019 03:40 14,8 C 13,9 C 16,1 C 87 % 1010,2 hPa 0,0 l/m 0 min 0 min 0 W/m 22,5 km/h (4 Bft) 97,83 %
28.09.2019 03:42 14,8 C 13,9 C 16,1 C 87 % 1010,2 hPa 0,0 l/m 0 min 0 min 0 W/m 19,3 km/h (3 Bft) 95,74 %
28.09.2019 03:44 14,8 C 13,9 C 16,1 C 87 % 1010,2 hPa 0,0 l/m 0 min 0 min 0 W/m 16,1 km/h (3 Bft) 97,87 %
28.09.2019 03:46 14,8 C 13,9 C 16,1 C 87 % 1010,2 hPa 0,0 l/m 0 min 0 min 0 W/m 19,3 km/h (3 Bft) 97,87 %
28.09.2019 03:48 14,8 C 13,9 C 16,1 C 87 % 1010,2 hPa 0,0 l/m 0 min 0 min 0 W/m 19,3 km/h (3 Bft) 97,87 %
28.09.2019 03:50 14,8 C 13,9 C 16,1 C 87 % 1010,1 hPa 0,0 l/m 0 min 0 min 0 W/m 22,5 km/h (4 Bft) 95,74 %
28.09.2019 03:52 14,7 C 13,9 C 16,1 C 87 % 1010,1 hPa 0,0 l/m 0 min 0 min 0 W/m 22,5 km/h (4 Bft) 97,83 %
28.09.2019 03:54 14,7 C 13,9 C 16,1 C 87 % 1010,1 hPa 0,0 l/m 0 min 0 min 0 W/m 19,3 km/h (3 Bft) 100,00 %
28.09.2019 03:56 14,7 C 13,9 C 16,1 C 87 % 1010,1 hPa 0,0 l/m 0 min 0 min 0 W/m 19,3 km/h (3 Bft) 97,87 %
28.09.2019 03:58 14,7 C 13,9 C 16,1 C 87 % 1010,1 hPa 0,0 l/m 0 min 0 min 0 W/m 16,1 km/h (3 Bft) 97,87 %
28.09.2019 04:00 14,7 C 13,9 C 16,1 C 87 % 1010,1 hPa 0,0 l/m 0 min 0 min 0 W/m 19,3 km/h (3 Bft) 100,00 %
28.09.2019 04:02 14,7 C 13,9 C 16,1 C 87 % 1010,1 hPa 0,0 l/m 0 min 0 min 0 W/m 19,3 km/h (3 Bft) 100,00 %
28.09.2019 04:04 14,7 C 13,9 C 16,1 C 87 % 1010,1 hPa 0,0 l/m 0 min 0 min 0 W/m 22,5 km/h (4 Bft) 100,00 %
28.09.2019 04:06 14,6 C 13,9 C 16,1 C 88 % 1010,1 hPa 0,0 l/m 0 min 0 min 0 W/m 25,7 km/h (4 Bft) 100,00 %
28.09.2019 04:08 14,6 C 13,9 C 16,1 C 88 % 1010,0 hPa 0,0 l/m 0 min 0 min 0 W/m 22,5 km/h (4 Bft) 100,00 %
28.09.2019 04:10 14,6 C 13,9 C 16,1 C 88 % 1010,0 hPa 0,0 l/m 0 min 0 min 0 W/m 16,1 km/h (3 Bft) 100,00 %
28.09.2019 04:12 14,6 C 13,9 C 16,1 C 88 % 1010,1 hPa 0,0 l/m 0 min 0 min 0 W/m 22,5 km/h (4 Bft) 100,00 %
28.09.2019 04:14 14,6 C 13,9 C 16,1 C 88 % 1010,1 hPa 0,0 l/m 0 min 0 min 0 W/m 25,7 km/h (4 Bft) 100,00 %
28.09.2019 04:16 14,6 C 13,9 C 16,1 C 88 % 1010,1 hPa 0,0 l/m 0 min 0 min 0 W/m 16,1 km/h (3 Bft) 100,00 %
28.09.2019 04:18 14,6 C 13,9 C 16,1 C 88 % 1010,1 hPa 0,0 l/m 0 min 0 min 0 W/m 19,3 km/h (3 Bft) 100,00 %
28.09.2019 04:20 14,6 C 13,9 C 16,1 C 88 % 1010,1 hPa 0,0 l/m 0 min 0 min 0 W/m 22,5 km/h (4 Bft) 100,00 %
28.09.2019 04:22 14,6 C 13,9 C 16,1 C 88 % 1010,1 hPa 0,0 l/m 0 min 0 min 0 W/m 16,1 km/h (3 Bft) 100,00 %
28.09.2019 04:24 14,6 C 13,9 C 16,1 C 88 % 1010,2 hPa 0,0 l/m 0 min 0 min 0 W/m 19,3 km/h (3 Bft) 97,87 %
28.09.2019 04:26 14,6 C 13,9 C 16,1 C 88 % 1010,1 hPa 0,0 l/m 0 min 0 min 0 W/m 35,4 km/h (5 Bft) 97,83 %
28.09.2019 04:28 14,6 C 13,9 C 16,1 C 88 % 1010,2 hPa 0,0 l/m 0 min 0 min 0 W/m 29,0 km/h (5 Bft) 95,74 %
28.09.2019 04:30 14,6 C 13,9 C 16,1 C 88 % 1010,1 hPa 0,0 l/m 0 min 0 min 0 W/m 25,7 km/h (4 Bft) 95,74 %
28.09.2019 04:32 14,6 C 13,9 C 16,1 C 88 % 1010,1 hPa 0,0 l/m 0 min 0 min 0 W/m 19,3 km/h (3 Bft) 97,87 %
28.09.2019 04:34 14,6 C 13,9 C 16,1 C 88 % 1010,2 hPa 0,0 l/m 0 min 0 min 0 W/m 32,2 km/h (5 Bft) 100,00 %
28.09.2019 04:36 14,7 C 13,9 C 16,1 C 88 % 1010,1 hPa 0,0 l/m 0 min 0 min 0 W/m 25,7 km/h (4 Bft) 97,87 %
28.09.2019 04:38 14,7 C 13,9 C 16,1 C 88 % 1010,2 hPa 0,0 l/m 0 min 0 min 0 W/m 22,5 km/h (4 Bft) 97,83 %
28.09.2019 04:40 14,7 C 13,9 C 16,1 C 88 % 1010,2 hPa 0,0 l/m 0 min 0 min 0 W/m 22,5 km/h (4 Bft) 97,87 %
28.09.2019 04:42 14,7 C 13,9 C 16,1 C 88 % 1010,2 hPa 0,0 l/m 0 min 0 min 0 W/m 22,5 km/h (4 Bft) 97,87 %
28.09.2019 04:44 14,7 C 13,9 C 16,1 C 88 % 1010,3 hPa 0,0 l/m 0 min 0 min 0 W/m 29,0 km/h (5 Bft) 95,74 %
28.09.2019 04:46 14,7 C 13,9 C 16,1 C 88 % 1010,2 hPa 0,0 l/m 0 min 0 min 0 W/m 29,0 km/h (5 Bft) 97,87 %
28.09.2019 04:48 14,7 C 13,9 C 16,1 C 88 % 1010,2 hPa 0,0 l/m 0 min 0 min 0 W/m 19,3 km/h (3 Bft) 97,87 %
28.09.2019 04:50 14,7 C 13,9 C 16,1 C 88 % 1010,2 hPa 0,0 l/m 0 min 0 min 0 W/m 16,1 km/h (3 Bft) 97,83 %
28.09.2019 04:52 14,7 C 13,9 C 16,1 C 88 % 1010,1 hPa 0,0 l/m 0 min 0 min 0 W/m 29,0 km/h (5 Bft) 97,87 %
28.09.2019 04:54 14,7 C 13,9 C 16,1 C 88 % 1010,2 hPa 0,0 l/m 0 min 0 min 0 W/m 25,7 km/h (4 Bft) 97,87 %
28.09.2019 04:56 14,7 C 13,9 C 16,1 C 88 % 1010,2 hPa 0,0 l/m 0 min 0 min 0 W/m 32,2 km/h (5 Bft) 97,87 %
28.09.2019 04:58 14,6 C 13,9 C 16,1 C 88 % 1010,3 hPa 0,0 l/m 0 min 0 min 0 W/m 19,3 km/h (3 Bft) 97,87 %
28.09.2019 05:00 14,6 C 13,9 C 16,1 C 88 % 1010,2 hPa 0,0 l/m 0 min 0 min 0 W/m 25,7 km/h (4 Bft) 97,83 %
28.09.2019 05:02 14,6 C 13,9 C 16,1 C 88 % 1010,3 hPa 0,0 l/m 0 min 0 min 0 W/m 22,5 km/h (4 Bft) 95,74 %
28.09.2019 05:04 14,6 C 13,9 C 16,1 C 88 % 1010,3 hPa 0,0 l/m 0 min 0 min 0 W/m 29,0 km/h (5 Bft) 97,87 %
28.09.2019 05:06 14,6 C 13,9 C 16,1 C 88 % 1010,4 hPa 0,0 l/m 0 min 0 min 0 W/m 35,4 km/h (5 Bft) 95,74 %
28.09.2019 05:08 14,6 C 13,9 C 16,1 C 88 % 1010,4 hPa 0,0 l/m 0 min 0 min 0 W/m 12,9 km/h (3 Bft) 100,00 %
28.09.2019 05:10 14,6 C 13,9 C 16,1 C 88 % 1010,4 hPa 0,0 l/m 0 min 0 min 0 W/m 25,7 km/h (4 Bft) 100,00 %
28.09.2019 05:12 14,6 C 13,9 C 16,1 C 88 % 1010,4 hPa 0,0 l/m 0 min 0 min 0 W/m 19,3 km/h (3 Bft) 97,87 %
28.09.2019 05:14 14,6 C 13,9 C 16,1 C 88 % 1010,4 hPa 0,0 l/m 0 min 0 min 0 W/m 25,7 km/h (4 Bft) 100,00 %
28.09.2019 05:16 14,7 C 13,9 C 16,1 C 88 % 1010,4 hPa 0,0 l/m 0 min 0 min 0 W/m 25,7 km/h (4 Bft) 100,00 %
28.09.2019 05:18 14,7 C 13,9 C 16,1 C 88 % 1010,4 hPa 0,0 l/m 0 min 0 min 0 W/m 29,0 km/h (5 Bft) 100,00 %
28.09.2019 05:20 14,7 C 14,4 C 16,1 C 88 % 1010,4 hPa 0,0 l/m 0 min 0 min 0 W/m 29,0 km/h (5 Bft) 97,87 %
28.09.2019 05:22 14,7 C 14,4 C 16,1 C 88 % 1010,4 hPa 0,0 l/m 0 min 0 min 0 W/m 32,2 km/h (5 Bft) 100,00 %
28.09.2019 05:24 14,7 C 14,4 C 16,1 C 88 % 1010,4 hPa 0,0 l/m 0 min 0 min 0 W/m 22,5 km/h (4 Bft) 100,00 %
28.09.2019 05:26 14,7 C 13,9 C 16,1 C 88 % 1010,4 hPa 0,0 l/m 0 min 0 min 0 W/m 19,3 km/h (3 Bft) 97,87 %
28.09.2019 05:28 14,7 C 14,4 C 16,1 C 88 % 1010,4 hPa 0,0 l/m 0 min 0 min 0 W/m 19,3 km/h (3 Bft) 100,00 %
28.09.2019 05:30 14,7 C 14,4 C 16,1 C 88 % 1010,4 hPa 0,0 l/m 0 min 0 min 0 W/m 38,6 km/h (5 Bft) 100,00 %
28.09.2019 05:32 14,8 C 14,4 C 16,1 C 88 % 1010,5 hPa 0,0 l/m 0 min 0 min 0 W/m 32,2 km/h (5 Bft) 100,00 %
28.09.2019 05:34 14,8 C 14,4 C 16,1 C 88 % 1010,5 hPa 0,0 l/m 0 min 0 min 0 W/m 35,4 km/h (5 Bft) 100,00 %
28.09.2019 05:36 14,8 C 14,4 C 16,1 C 88 % 1010,4 hPa 0,0 l/m 0 min 0 min 0 W/m 32,2 km/h (5 Bft) 95,65 %
28.09.2019 05:38 14,8 C 14,4 C 16,1 C 88 % 1010,4 hPa 0,0 l/m 0 min 0 min 0 W/m 29,0 km/h (5 Bft) 100,00 %
28.09.2019 05:40 14,8 C 14,4 C 16,1 C 88 % 1010,4 hPa 0,0 l/m 0 min 0 min 0 W/m 29,0 km/h (5 Bft) 100,00 %
28.09.2019 05:42 14,8 C 14,4 C 16,1 C 88 % 1010,5 hPa 0,0 l/m 0 min 0 min 0 W/m 12,9 km/h (3 Bft) 41,18 %
28.09.2019 05:44 14,8 C 13,9 C 16,1 C 88 % 1010,5 hPa 0,0 l/m 0 min 0 min 0 W/m 48,3 km/h (6 Bft) 100,00 %
28.09.2019 05:46 14,8 C 13,9 C 16,1 C 88 % 1010,5 hPa 0,0 l/m 0 min 2 min 0 W/m 22,5 km/h (4 Bft) 100,00 %
28.09.2019 05:48 14,9 C 12,8 C 16,1 C 88 % 1010,6 hPa 0,0 l/m 0 min 2 min 0 W/m 22,5 km/h (4 Bft) 97,83 %
28.09.2019 05:50 14,9 C 12,8 C 16,1 C 88 % 1010,5 hPa 0,0 l/m 0 min 2 min 0 W/m 22,5 km/h (4 Bft) 100,00 %
28.09.2019 05:52 14,9 C 12,8 C 16,1 C 88 % 1010,5 hPa 0,0 l/m 0 min 2 min 0 W/m 22,5 km/h (4 Bft) 100,00 %
28.09.2019 05:54 14,8 C 12,8 C 16,1 C 89 % 1010,5 hPa 0,0 l/m 0 min 2 min 0 W/m 22,5 km/h (4 Bft) 95,74 %
28.09.2019 05:56 14,8 C 12,8 C 16,1 C 89 % 1010,5 hPa 0,0 l/m 0 min 2 min 0 W/m 25,7 km/h (4 Bft) 95,74 %
28.09.2019 05:58 14,8 C 12,8 C 16,1 C 89 % 1010,6 hPa 0,0 l/m 0 min 2 min 0 W/m 16,1 km/h (3 Bft) 95,74 %
28.09.2019 06:00 14,8 C 12,8 C 16,1 C 89 % 1010,6 hPa 0,0 l/m 0 min 2 min 0 W/m 29,0 km/h (5 Bft) 97,83 %
28.09.2019 06:02 14,7 C 12,8 C 16,1 C 89 % 1010,5 hPa 0,0 l/m 0 min 2 min 0 W/m 25,7 km/h (4 Bft) 95,74 %
28.09.2019 06:04 14,7 C 12,2 C 16,1 C 89 % 1010,6 hPa 0,0 l/m 0 min 2 min 0 W/m 19,3 km/h (3 Bft) 95,74 %
28.09.2019 06:08 14,6 C 12,2 C 16,1 C 90 % 1010,6 hPa 0,0 l/m 0 min 4 min 0 W/m 22,5 km/h (4 Bft) 95,74 %
28.09.2019 06:10 14,6 C 12,2 C 16,1 C 90 % 1010,6 hPa 0,2 l/m 0 min 2 min 0 W/m 16,1 km/h (3 Bft) 97,87 %
28.09.2019 06:12 14,6 C 12,2 C 16,1 C 90 % 1010,7 hPa 0,0 l/m 0 min 2 min 0 W/m 19,3 km/h (3 Bft) 93,48 %
28.09.2019 06:14 14,5 C 12,2 C 16,1 C 90 % 1010,7 hPa 0,0 l/m 0 min 2 min 0 W/m 16,1 km/h (3 Bft) 93,62 %
28.09.2019 06:16 14,5 C 12,2 C 16,1 C 91 % 1010,7 hPa 0,0 l/m 0 min 2 min 0 W/m 19,3 km/h (3 Bft) 95,74 %
28.09.2019 06:18 14,4 C 12,2 C 16,1 C 91 % 1010,8 hPa 0,0 l/m 0 min 2 min 0 W/m 25,7 km/h (4 Bft) 95,74 %
28.09.2019 06:20 14,4 C 12,2 C 16,1 C 91 % 1010,7 hPa 0,0 l/m 0 min 2 min 0 W/m 25,7 km/h (4 Bft) 93,62 %
28.09.2019 06:22 14,3 C 12,2 C 16,1 C 91 % 1010,6 hPa 0,2 l/m 0 min 2 min 0 W/m 29,0 km/h (5 Bft) 95,74 %
28.09.2019 06:24 14,2 C 12,2 C 16,1 C 92 % 1010,7 hPa 0,0 l/m 0 min 2 min 0 W/m 29,0 km/h (5 Bft) 95,65 %
28.09.2019 06:26 14,2 C 12,2 C 16,1 C 92 % 1010,6 hPa 0,0 l/m 0 min 2 min 0 W/m 22,5 km/h (4 Bft) 95,74 %
28.09.2019 06:28 14,2 C 12,2 C 16,1 C 92 % 1010,7 hPa 0,0 l/m 0 min 2 min 0 W/m 22,5 km/h (4 Bft) 95,74 %
28.09.2019 06:30 14,2 C 12,2 C 16,1 C 92 % 1010,6 hPa 0,0 l/m 0 min 2 min 0 W/m 22,5 km/h (4 Bft) 95,74 %
28.09.2019 06:32 14,2 C 12,2 C 16,1 C 92 % 1010,6 hPa 0,0 l/m 0 min 2 min 0 W/m 22,5 km/h (4 Bft) 95,74 %
28.09.2019 06:34 14,2 C 12,2 C 16,1 C 93 % 1010,6 hPa 0,0 l/m 0 min 2 min 0 W/m 22,5 km/h (4 Bft) 95,65 %
28.09.2019 06:36 14,2 C 12,2 C 16,1 C 93 % 1010,6 hPa 0,0 l/m 0 min 0 min 0 W/m 19,3 km/h (3 Bft) 95,74 %
28.09.2019 06:38 14,1 C 12,2 C 16,1 C 93 % 1010,5 hPa 0,0 l/m 0 min 0 min 0 W/m 22,5 km/h (4 Bft) 93,62 %
28.09.2019 06:40 14,0 C 12,2 C 16,1 C 93 % 1010,6 hPa 0,0 l/m 0 min 0 min 0 W/m 19,3 km/h (3 Bft) 95,74 %
28.09.2019 06:42 14,0 C 12,2 C 16,1 C 93 % 1010,6 hPa 0,0 l/m 0 min 0 min 0 W/m 19,3 km/h (3 Bft) 95,74 %
28.09.2019 06:44 13,9 C 12,2 C 16,1 C 93 % 1010,5 hPa 0,0 l/m 0 min 0 min 0 W/m 16,1 km/h (3 Bft) 95,74 %
28.09.2019 06:46 13,9 C 12,2 C 16,1 C 93 % 1010,6 hPa 0,0 l/m 0 min 0 min 0 W/m 16,1 km/h (3 Bft) 95,65 %
28.09.2019 06:48 13,9 C 12,2 C 16,1 C 94 % 1010,5 hPa 0,0 l/m 0 min 0 min 0 W/m 22,5 km/h (4 Bft) 95,74 %
28.09.2019 06:50 13,9 C 12,2 C 16,1 C 94 % 1010,5 hPa 0,0 l/m 0 min 0 min 0 W/m 19,3 km/h (3 Bft) 91,49 %
28.09.2019 06:52 13,8 C 12,2 C 16,1 C 94 % 1010,5 hPa 0,0 l/m 0 min 0 min 0 W/m 25,7 km/h (4 Bft) 95,74 %
28.09.2019 06:54 13,8 C 12,2 C 16,1 C 94 % 1010,6 hPa 0,0 l/m 0 min 0 min 0 W/m 22,5 km/h (4 Bft) 95,74 %
28.09.2019 06:56 13,8 C 12,2 C 16,1 C 94 % 1010,6 hPa 0,0 l/m 0 min 0 min 0 W/m 22,5 km/h (4 Bft) 97,87 %
28.09.2019 06:58 13,8 C 12,2 C 16,1 C 94 % 1010,6 hPa 0,0 l/m 0 min 0 min 0 W/m 19,3 km/h (3 Bft) 97,83 %
28.09.2019 07:00 13,8 C 12,2 C 16,1 C 94 % 1010,6 hPa 0,0 l/m 0 min 0 min 0 W/m 25,7 km/h (4 Bft) 97,87 %
28.09.2019 07:02 13,7 C 12,2 C 16,1 C 94 % 1010,6 hPa 0,0 l/m 0 min 0 min 0 W/m 16,1 km/h (3 Bft) 97,87 %
28.09.2019 07:04 13,7 C 12,2 C 16,1 C 94 % 1010,6 hPa 0,0 l/m 0 min 0 min 0 W/m 29,0 km/h (5 Bft) 97,87 %
28.09.2019 07:06 13,7 C 12,2 C 16,1 C 94 % 1010,6 hPa 0,0 l/m 0 min 0 min 0 W/m 25,7 km/h (4 Bft) 95,74 %
28.09.2019 07:08 13,7 C 12,2 C 16,1 C 94 % 1010,6 hPa 0,0 l/m 0 min 0 min 0 W/m 19,3 km/h (3 Bft) 97,87 %
28.09.2019 07:10 13,7 C 12,2 C 16,1 C 94 % 1010,6 hPa 0,0 l/m 0 min 0 min 0 W/m 22,5 km/h (4 Bft) 97,83 %
28.09.2019 07:12 13,7 C 12,2 C 16,1 C 95 % 1010,6 hPa 0,0 l/m 0 min 0 min 0 W/m 32,2 km/h (5 Bft) 93,62 %
28.09.2019 07:14 13,7 C 12,2 C 16,1 C 95 % 1010,6 hPa 0,0 l/m 0 min 0 min 0 W/m 25,7 km/h (4 Bft) 97,87 %
28.09.2019 07:16 13,7 C 12,2 C 16,1 C 95 % 1010,7 hPa 0,0 l/m 0 min 0 min 0 W/m 25,7 km/h (4 Bft) 95,74 %
28.09.2019 07:18 13,7 C 12,2 C 16,1 C 95 % 1010,7 hPa 0,0 l/m 0 min 0 min 0 W/m 22,5 km/h (4 Bft) 97,87 %
28.09.2019 07:20 13,7 C 12,2 C 16,1 C 95 % 1010,7 hPa 0,0 l/m 0 min 0 min 0 W/m 19,3 km/h (3 Bft) 93,62 %
28.09.2019 07:22 13,7 C 12,2 C 16,1 C 95 % 1010,7 hPa 0,0 l/m 0 min 0 min 0 W/m 19,3 km/h (3 Bft) 97,83 %
28.09.2019 07:24 13,6 C 12,8 C 16,1 C 95 % 1010,7 hPa 0,0 l/m 0 min 0 min 0 W/m 29,0 km/h (5 Bft) 97,87 %
28.09.2019 07:26 13,7 C 12,8 C 16,1 C 95 % 1010,8 hPa 0,0 l/m 0 min 0 min 0 W/m 22,5 km/h (4 Bft) 97,87 %
28.09.2019 07:28 13,7 C 12,8 C 16,1 C 95 % 1010,8 hPa 0,0 l/m 0 min 0 min 0 W/m 25,7 km/h (4 Bft) 95,74 %
28.09.2019 07:30 13,7 C 12,8 C 16,1 C 95 % 1011,0 hPa 0,0 l/m 0 min 0 min 0 W/m 19,3 km/h (3 Bft) 97,87 %
28.09.2019 07:32 13,7 C 12,8 C 16,1 C 95 % 1010,9 hPa 0,0 l/m 0 min 0 min 0 W/m 25,7 km/h (4 Bft) 97,87 %
28.09.2019 07:36 13,7 C 12,8 C 18,3 C 95 % 1010,9 hPa 0,0 l/m 0 min 0 min 0 W/m 29,0 km/h (5 Bft) 98,18 %
28.09.2019 07:38 13,7 C 12,8 C 18,3 C 94 % 1010,8 hPa 0,0 l/m 0 min 0 min 0 W/m 19,3 km/h (3 Bft) 97,83 %
28.09.2019 07:40 13,7 C 12,8 C 18,3 C 94 % 1010,8 hPa 0,0 l/m 0 min 0 min 0 W/m 19,3 km/h (3 Bft) 95,74 %
28.09.2019 07:42 13,7 C 12,8 C 18,3 C 94 % 1010,9 hPa 0,0 l/m 0 min 0 min 4 W/m 32,2 km/h (5 Bft) 97,87 %
28.09.2019 07:44 13,7 C 12,8 C 18,3 C 94 % 1010,9 hPa 0,0 l/m 0 min 0 min 7 W/m 22,5 km/h (4 Bft) 97,87 %
28.09.2019 07:46 13,7 C 12,8 C 18,3 C 94 % 1010,9 hPa 0,0 l/m 0 min 0 min 7 W/m 29,0 km/h (5 Bft) 97,87 %
28.09.2019 07:48 13,8 C 12,8 C 18,3 C 94 % 1011,0 hPa 0,0 l/m 0 min 0 min 8 W/m 29,0 km/h (5 Bft) 97,87 %
28.09.2019 07:50 13,8 C 12,8 C 18,3 C 94 % 1010,9 hPa 0,0 l/m 0 min 0 min 9 W/m 16,1 km/h (3 Bft) 97,83 %
28.09.2019 07:52 13,8 C 12,8 C 18,3 C 94 % 1010,9 hPa 0,0 l/m 0 min 0 min 12 W/m 25,7 km/h (4 Bft) 100,00 %
28.09.2019 07:54 13,8 C 12,8 C 18,3 C 94 % 1010,9 hPa 0,0 l/m 0 min 0 min 14 W/m 22,5 km/h (4 Bft) 97,87 %
28.09.2019 07:56 13,8 C 12,8 C 18,3 C 94 % 1010,9 hPa 0,0 l/m 0 min 0 min 20 W/m 19,3 km/h (3 Bft) 97,87 %
28.09.2019 07:58 13,8 C 12,8 C 18,3 C 94 % 1010,9 hPa 0,0 l/m 0 min 0 min 17 W/m 22,5 km/h (4 Bft) 100,00 %
28.09.2019 08:00 13,8 C 12,8 C 18,3 C 94 % 1010,9 hPa 0,0 l/m 0 min 0 min 16 W/m 16,1 km/h (3 Bft) 97,87 %
28.09.2019 08:02 13,8 C 12,8 C 18,3 C 94 % 1010,9 hPa 0,0 l/m 0 min 0 min 18 W/m 19,3 km/h (3 Bft) 95,65 %
28.09.2019 08:04 13,8 C 12,8 C 18,3 C 94 % 1011,0 hPa 0,0 l/m 0 min 0 min 16 W/m 19,3 km/h (3 Bft) 100,00 %
28.09.2019 08:06 13,8 C 12,8 C 18,3 C 94 % 1011,0 hPa 0,0 l/m 0 min 0 min 11 W/m 19,3 km/h (3 Bft) 100,00 %
28.09.2019 08:08 13,9 C 12,8 C 18,3 C 94 % 1010,9 hPa 0,0 l/m 0 min 0 min 7 W/m 22,5 km/h (4 Bft) 100,00 %
28.09.2019 08:10 13,9 C 12,8 C 18,3 C 94 % 1011,0 hPa 0,0 l/m 0 min 0 min 9 W/m 22,5 km/h (4 Bft) 100,00 %
28.09.2019 08:12 13,9 C 12,8 C 18,3 C 94 % 1011,0 hPa 0,0 l/m 0 min 0 min 13 W/m 25,7 km/h (4 Bft) 97,83 %
28.09.2019 08:14 13,9 C 12,8 C 18,3 C 93 % 1011,1 hPa 0,0 l/m 0 min 0 min 17 W/m 16,1 km/h (3 Bft) 100,00 %
28.09.2019 08:16 13,9 C 12,8 C 18,3 C 93 % 1011,1 hPa 0,0 l/m 0 min 0 min 20 W/m 29,0 km/h (5 Bft) 100,00 %
28.09.2019 08:18 13,9 C 12,8 C 18,3 C 93 % 1011,2 hPa 0,0 l/m 0 min 0 min 17 W/m 25,7 km/h (4 Bft) 100,00 %
28.09.2019 08:20 13,9 C 12,8 C 18,3 C 93 % 1011,1 hPa 0,0 l/m 0 min 0 min 12 W/m 35,4 km/h (5 Bft) 100,00 %
28.09.2019 08:22 14,0 C 12,8 C 18,3 C 93 % 1011,1 hPa 0,0 l/m 0 min 0 min 13 W/m 19,3 km/h (3 Bft) 100,00 %
28.09.2019 08:24 14,0 C 12,8 C 18,3 C 93 % 1011,1 hPa 0,0 l/m 0 min 0 min 21 W/m 19,3 km/h (3 Bft) 100,00 %
28.09.2019 08:26 14,0 C 12,8 C 18,3 C 93 % 1011,1 hPa 0,0 l/m 0 min 0 min 24 W/m 25,7 km/h (4 Bft) 100,00 %
28.09.2019 08:28 14,0 C 12,8 C 18,3 C 93 % 1011,1 hPa 0,0 l/m 0 min 0 min 25 W/m 29,0 km/h (5 Bft) 100,00 %
28.09.2019 08:30 14,0 C 13,3 C 18,3 C 93 % 1011,2 hPa 0,0 l/m 0 min 0 min 34 W/m 45,1 km/h (6 Bft) 100,00 %
28.09.2019 08:32 14,1 C 13,3 C 18,3 C 93 % 1011,1 hPa 0,0 l/m 0 min 0 min 40 W/m 29,0 km/h (5 Bft) 100,00 %
28.09.2019 08:34 14,1 C 13,3 C 18,3 C 93 % 1011,2 hPa 0,0 l/m 0 min 0 min 46 W/m 29,0 km/h (5 Bft) 100,00 %
28.09.2019 08:36 14,1 C 13,3 C 18,3 C 93 % 1011,2 hPa 0,0 l/m 0 min 0 min 43 W/m 22,5 km/h (4 Bft) 100,00 %
28.09.2019 08:38 14,1 C 13,3 C 18,3 C 93 % 1011,2 hPa 0,0 l/m 0 min 0 min 21 W/m 29,0 km/h (5 Bft) 100,00 %
28.09.2019 08:40 14,1 C 13,3 C 18,3 C 93 % 1011,2 hPa 0,0 l/m 0 min 0 min 30 W/m 25,7 km/h (4 Bft) 100,00 %
28.09.2019 08:42 14,1 C 13,3 C 18,3 C 93 % 1011,1 hPa 0,0 l/m 0 min 0 min 31 W/m 16,1 km/h (3 Bft) 100,00 %
28.09.2019 08:44 14,1 C 13,3 C 18,3 C 93 % 1011,2 hPa 0,0 l/m 0 min 0 min 39 W/m 12,9 km/h (3 Bft) 100,00 %
28.09.2019 08:46 14,1 C 13,9 C 18,3 C 93 % 1011,2 hPa 0,0 l/m 0 min 0 min 58 W/m 35,4 km/h (5 Bft) 100,00 %
28.09.2019 08:48 14,1 C 13,9 C 18,3 C 93 % 1011,2 hPa 0,0 l/m 0 min 0 min 64 W/m 29,0 km/h (5 Bft) 100,00 %
28.09.2019 08:50 14,1 C 13,9 C 18,3 C 93 % 1011,2 hPa 0,0 l/m 0 min 0 min 88 W/m 29,0 km/h (5 Bft) 100,00 %
28.09.2019 08:52 14,1 C 13,9 C 18,3 C 93 % 1011,2 hPa 0,0 l/m 0 min 0 min 98 W/m 22,5 km/h (4 Bft) 97,87 %
28.09.2019 08:54 14,2 C 13,9 C 18,3 C 93 % 1011,2 hPa 0,0 l/m 0 min 0 min 89 W/m 16,1 km/h (3 Bft) 100,00 %
28.09.2019 08:56 14,2 C 13,9 C 18,3 C 93 % 1011,2 hPa 0,0 l/m 0 min 0 min 59 W/m 16,1 km/h (3 Bft) 100,00 %
28.09.2019 08:58 14,2 C 13,9 C 18,3 C 93 % 1011,2 hPa 0,0 l/m 0 min 0 min 64 W/m 25,7 km/h (4 Bft) 100,00 %
28.09.2019 09:00 14,2 C 13,9 C 18,3 C 93 % 1011,3 hPa 0,0 l/m 0 min 0 min 64 W/m 22,5 km/h (4 Bft) 97,83 %
28.09.2019 09:02 14,2 C 13,9 C 18,3 C 93 % 1011,3 hPa 0,0 l/m 0 min 0 min 66 W/m 19,3 km/h (3 Bft) 100,00 %
28.09.2019 09:04 14,2 C 13,9 C 18,3 C 93 % 1011,3 hPa 0,0 l/m 0 min 0 min 58 W/m 16,1 km/h (3 Bft) 100,00 %
28.09.2019 09:06 14,2 C 13,9 C 18,3 C 93 % 1011,3 hPa 0,0 l/m 0 min 0 min 70 W/m 19,3 km/h (3 Bft) 100,00 %
28.09.2019 09:08 14,2 C 13,9 C 18,3 C 93 % 1011,2 hPa 0,0 l/m 0 min 0 min 65 W/m 22,5 km/h (4 Bft) 100,00 %
28.09.2019 09:10 14,2 C 13,9 C 18,3 C 93 % 1011,3 hPa 0,0 l/m 0 min 0 min 69 W/m 16,1 km/h (3 Bft) 97,83 %
28.09.2019 09:12 14,2 C 13,9 C 18,3 C 93 % 1011,3 hPa 0,0 l/m 0 min 0 min 64 W/m 25,7 km/h (4 Bft) 97,87 %
28.09.2019 09:14 14,2 C 13,9 C 18,3 C 93 % 1011,3 hPa 0,0 l/m 0 min 0 min 61 W/m 16,1 km/h (3 Bft) 97,87 %
28.09.2019 09:16 14,2 C 13,9 C 18,3 C 93 % 1011,3 hPa 0,0 l/m 0 min 0 min 69 W/m 6,4 km/h (2 Bft) 97,87 %
28.09.2019 09:18 14,2 C 13,9 C 18,3 C 93 % 1011,3 hPa 0,0 l/m 0 min 0 min 73 W/m 16,1 km/h (3 Bft) 41,67 %
28.09.2019 09:20 14,2 C 14,4 C 18,3 C 93 % 1011,3 hPa 0,0 l/m 0 min 0 min 88 W/m 19,3 km/h (3 Bft) 97,87 %
28.09.2019 09:22 14,2 C 14,4 C 18,3 C 92 % 1011,3 hPa 0,0 l/m 0 min 0 min 91 W/m 19,3 km/h (3 Bft) 97,83 %
28.09.2019 09:24 14,3 C 14,4 C 18,3 C 92 % 1011,4 hPa 0,0 l/m 0 min 0 min 91 W/m 22,5 km/h (4 Bft) 95,74 %
28.09.2019 09:26 14,3 C 14,4 C 18,3 C 92 % 1011,3 hPa 0,0 l/m 0 min 0 min 97 W/m 19,3 km/h (3 Bft) 95,74 %
28.09.2019 09:28 14,3 C 14,4 C 18,3 C 92 % 1011,4 hPa 0,0 l/m 0 min 0 min 78 W/m 25,7 km/h (4 Bft) 95,74 %
28.09.2019 09:30 14,3 C 14,4 C 18,3 C 92 % 1011,5 hPa 0,0 l/m 0 min 0 min 77 W/m 16,1 km/h (3 Bft) 95,74 %
28.09.2019 09:32 14,3 C 14,4 C 18,3 C 92 % 1011,4 hPa 0,0 l/m 0 min 0 min 68 W/m 25,7 km/h (4 Bft) 93,62 %
28.09.2019 09:34 14,4 C 14,4 C 18,3 C 92 % 1011,5 hPa 0,0 l/m 0 min 0 min 60 W/m 19,3 km/h (3 Bft) 95,65 %
28.09.2019 09:36 14,4 C 13,9 C 18,3 C 92 % 1011,5 hPa 0,0 l/m 0 min 0 min 54 W/m 22,5 km/h (4 Bft) 95,74 %
28.09.2019 09:38 14,4 C 13,9 C 18,3 C 92 % 1011,5 hPa 0,0 l/m 0 min 0 min 64 W/m 29,0 km/h (5 Bft) 95,74 %
28.09.2019 09:40 14,4 C 13,9 C 18,3 C 92 % 1011,5 hPa 0,0 l/m 0 min 0 min 77 W/m 32,2 km/h (5 Bft) 95,74 %
28.09.2019 09:42 14,4 C 14,4 C 18,3 C 91 % 1011,6 hPa 0,0 l/m 0 min 0 min 97 W/m 25,7 km/h (4 Bft) 93,62 %
28.09.2019 09:44 14,4 C 14,4 C 18,3 C 91 % 1011,5 hPa 0,0 l/m 0 min 0 min 131 W/m 32,2 km/h (5 Bft) 91,49 %
28.09.2019 09:46 14,4 C 14,4 C 18,3 C 91 % 1011,5 hPa 0,0 l/m 0 min 0 min 140 W/m 19,3 km/h (3 Bft) 93,48 %
28.09.2019 09:48 14,4 C 14,4 C 18,3 C 91 % 1011,5 hPa 0,0 l/m 0 min 0 min 117 W/m 25,7 km/h (4 Bft) 93,62 %
28.09.2019 09:50 14,4 C 15,0 C 18,3 C 91 % 1011,4 hPa 0,0 l/m 0 min 0 min 132 W/m 41,8 km/h (6 Bft) 93,62 %
28.09.2019 09:52 14,5 C 15,0 C 18,3 C 91 % 1011,6 hPa 0,0 l/m 0 min 0 min 132 W/m 35,4 km/h (5 Bft) 93,62 %
28.09.2019 09:54 14,5 C 15,6 C 18,3 C 91 % 1011,6 hPa 0,0 l/m 0 min 0 min 139 W/m 25,7 km/h (4 Bft) 89,36 %
28.09.2019 09:56 14,6 C 16,7 C 18,3 C 91 % 1011,6 hPa 0,0 l/m 2 min 0 min 218 W/m 29,0 km/h (5 Bft) 93,48 %
28.09.2019 09:58 14,6 C 17,2 C 18,3 C 91 % 1011,6 hPa 0,0 l/m 2 min 0 min 366 W/m 25,7 km/h (4 Bft) 91,49 %
28.09.2019 10:00 14,7 C 17,8 C 18,3 C 91 % 1011,7 hPa 0,0 l/m 2 min 0 min 397 W/m 25,7 km/h (4 Bft) 95,74 %
28.09.2019 10:02 14,8 C 17,2 C 18,3 C 91 % 1011,7 hPa 0,0 l/m 2 min 0 min 397 W/m 25,7 km/h (4 Bft) 91,49 %
28.09.2019 10:04 14,9 C 17,8 C 18,3 C 90 % 1011,6 hPa 0,0 l/m 2 min 0 min 385 W/m 35,4 km/h (5 Bft) 93,75 %
28.09.2019 10:06 15,0 C 18,3 C 18,3 C 90 % 1011,7 hPa 0,0 l/m 2 min 0 min 405 W/m 25,7 km/h (4 Bft) 95,65 %
28.09.2019 10:08 15,1 C 18,3 C 18,3 C 90 % 1011,8 hPa 0,0 l/m 2 min 0 min 438 W/m 25,7 km/h (4 Bft) 95,74 %
28.09.2019 10:10 15,2 C 18,9 C 18,3 C 90 % 1011,8 hPa 0,0 l/m 2 min 0 min 425 W/m 19,3 km/h (3 Bft) 93,62 %
28.09.2019 10:12 15,3 C 17,2 C 18,3 C 90 % 1011,8 hPa 0,0 l/m 2 min 0 min 333 W/m 25,7 km/h (4 Bft) 93,62 %
28.09.2019 10:14 15,3 C 16,1 C 18,3 C 89 % 1011,8 hPa 0,0 l/m 2 min 0 min 225 W/m 41,8 km/h (6 Bft) 93,62 %
28.09.2019 10:16 15,4 C 16,1 C 18,3 C 89 % 1011,8 hPa 0,0 l/m 0 min 0 min 155 W/m 16,1 km/h (3 Bft) 95,65 %
28.09.2019 10:18 15,4 C 16,1 C 18,3 C 89 % 1011,9 hPa 0,0 l/m 0 min 0 min 175 W/m 32,2 km/h (5 Bft) 97,87 %
28.09.2019 10:20 15,4 C 15,6 C 18,3 C 88 % 1011,8 hPa 0,0 l/m 0 min 0 min 128 W/m 19,3 km/h (3 Bft) 95,74 %
28.09.2019 10:22 15,5 C 15,0 C 18,3 C 88 % 1012,0 hPa 0,0 l/m 0 min 0 min 111 W/m 25,7 km/h (4 Bft) 95,74 %
28.09.2019 10:24 15,4 C 15,0 C 18,3 C 88 % 1012,1 hPa 0,0 l/m 0 min 0 min 93 W/m 25,7 km/h (4 Bft) 97,87 %
28.09.2019 10:26 15,4 C 15,0 C 18,3 C 88 % 1012,0 hPa 0,0 l/m 0 min 0 min 83 W/m 32,2 km/h (5 Bft) 97,87 %
28.09.2019 10:28 15,4 C 15,0 C 18,3 C 88 % 1012,0 hPa 0,0 l/m 0 min 0 min 101 W/m 35,4 km/h (5 Bft) 100,00 %
28.09.2019 10:30 15,4 C 15,6 C 18,3 C 88 % 1012,0 hPa 0,0 l/m 0 min 0 min 149 W/m 25,7 km/h (4 Bft) 100,00 %
28.09.2019 10:32 15,4 C 15,6 C 18,3 C 88 % 1012,0 hPa 0,0 l/m 0 min 0 min 149 W/m 19,3 km/h (3 Bft) 97,87 %
28.09.2019 10:34 15,4 C 15,6 C 18,3 C 88 % 1012,0 hPa 0,0 l/m 0 min 0 min 117 W/m 25,7 km/h (4 Bft) 97,87 %
28.09.2019 10:36 15,4 C 15,6 C 18,3 C 88 % 1012,0 hPa 0,0 l/m 0 min 0 min 109 W/m 32,2 km/h (5 Bft) 100,00 %
28.09.2019 10:38 15,4 C 15,0 C 18,3 C 88 % 1012,1 hPa 0,0 l/m 0 min 0 min 108 W/m 29,0 km/h (5 Bft) 100,00 %
28.09.2019 10:40 15,4 C 15,0 C 18,3 C 87 % 1012,0 hPa 0,0 l/m 0 min 0 min 92 W/m 25,7 km/h (4 Bft) 100,00 %
28.09.2019 10:42 15,4 C 15,0 C 18,3 C 87 % 1012,1 hPa 0,0 l/m 0 min 0 min 61 W/m 16,1 km/h (3 Bft) 97,87 %
28.09.2019 10:44 15,4 C 15,0 C 18,3 C 87 % 1012,1 hPa 0,0 l/m 0 min 0 min 76 W/m 25,7 km/h (4 Bft) 100,00 %
28.09.2019 10:46 15,4 C 15,0 C 18,3 C 87 % 1012,2 hPa 0,0 l/m 0 min 0 min 99 W/m 22,5 km/h (4 Bft) 100,00 %
28.09.2019 10:48 15,4 C 15,0 C 18,3 C 87 % 1012,2 hPa 0,0 l/m 0 min 0 min 92 W/m 19,3 km/h (3 Bft) 100,00 %
28.09.2019 10:50 15,4 C 15,6 C 18,3 C 87 % 1012,2 hPa 0,0 l/m 0 min 0 min 97 W/m 22,5 km/h (4 Bft) 100,00 %
28.09.2019 10:52 15,4 C 15,6 C 18,3 C 87 % 1012,2 hPa 0,0 l/m 0 min 0 min 122 W/m 19,3 km/h (3 Bft) 100,00 %
28.09.2019 10:54 15,4 C 16,1 C 18,3 C 87 % 1012,2 hPa 0,0 l/m 0 min 0 min 197 W/m 16,1 km/h (3 Bft) 100,00 %
28.09.2019 10:56 15,5 C 17,2 C 18,3 C 87 % 1012,3 hPa 0,0 l/m 0 min 0 min 220 W/m 22,5 km/h (4 Bft) 100,00 %
28.09.2019 10:58 15,6 C 17,2 C 18,3 C 87 % 1012,2 hPa 0,0 l/m 2 min 0 min 257 W/m 22,5 km/h (4 Bft) 100,00 %
28.09.2019 11:00 15,6 C 16,7 C 18,3 C 87 % 1012,2 hPa 0,0 l/m 0 min 0 min 215 W/m 19,3 km/h (3 Bft) 100,00 %
28.09.2019 11:02 15,7 C 16,7 C 18,3 C 86 % 1012,2 hPa 0,0 l/m 0 min 0 min 234 W/m 29,0 km/h (5 Bft) 97,83 %
28.09.2019 11:04 15,7 C 16,7 C 18,3 C 86 % 1012,1 hPa 0,0 l/m 0 min 0 min 207 W/m 25,7 km/h (4 Bft) 100,00 %
28.09.2019 11:06 15,8 C 16,1 C 18,3 C 86 % 1012,2 hPa 0,0 l/m 0 min 0 min 157 W/m 19,3 km/h (3 Bft) 100,00 %
28.09.2019 11:08 15,8 C 16,1 C 18,3 C 85 % 1012,2 hPa 0,0 l/m 0 min 0 min 136 W/m 19,3 km/h (3 Bft) 100,00 %
28.09.2019 11:10 15,8 C 16,1 C 18,3 C 85 % 1012,2 hPa 0,0 l/m 0 min 0 min 115 W/m 16,1 km/h (3 Bft) 100,00 %
28.09.2019 11:12 15,8 C 16,1 C 18,3 C 85 % 1012,2 hPa 0,0 l/m 0 min 0 min 113 W/m 19,3 km/h (3 Bft) 100,00 %
28.09.2019 11:14 15,9 C 16,1 C 18,3 C 85 % 1012,2 hPa 0,0 l/m 0 min 0 min 126 W/m 22,5 km/h (4 Bft) 100,00 %
28.09.2019 11:16 15,9 C 17,2 C 18,3 C 85 % 1012,2 hPa 0,0 l/m 2 min 0 min 269 W/m 32,2 km/h (5 Bft) 97,87 %
28.09.2019 11:18 15,9 C 17,8 C 18,3 C 85 % 1012,3 hPa 0,0 l/m 2 min 0 min 294 W/m 22,5 km/h (4 Bft) 100,00 %
28.09.2019 11:20 16,1 C 17,8 C 18,3 C 85 % 1012,2 hPa 0,0 l/m 0 min 0 min 202 W/m 25,7 km/h (4 Bft) 100,00 %
28.09.2019 11:22 16,1 C 16,7 C 18,3 C 85 % 1012,1 hPa 0,0 l/m 0 min 0 min 132 W/m 19,3 km/h (3 Bft) 100,00 %
28.09.2019 11:24 16,1 C 16,7 C 18,3 C 84 % 1012,4 hPa 0,0 l/m 0 min 0 min 118 W/m 29,0 km/h (5 Bft) 100,00 %
28.09.2019 11:26 16,1 C 17,2 C 18,3 C 84 % 1012,2 hPa 0,0 l/m 0 min 0 min 179 W/m 22,5 km/h (4 Bft) 100,00 %
28.09.2019 11:28 16,2 C 18,3 C 18,3 C 84 % 1012,2 hPa 0,0 l/m 2 min 0 min 470 W/m 19,3 km/h (3 Bft) 100,00 %
28.09.2019 11:30 16,2 C 16,7 C 18,3 C 83 % 1012,2 hPa 0,0 l/m 2 min 0 min 307 W/m 45,1 km/h (6 Bft) 100,00 %
28.09.2019 11:32 16,2 C 16,7 C 18,3 C 83 % 1012,1 hPa 0,0 l/m 0 min 0 min 170 W/m 22,5 km/h (4 Bft) 100,00 %
28.09.2019 11:34 16,3 C 16,7 C 18,3 C 83 % 1012,3 hPa 0,0 l/m 0 min 0 min 184 W/m 19,3 km/h (3 Bft) 100,00 %
28.09.2019 11:36 16,3 C 16,7 C 18,3 C 83 % 1012,1 hPa 0,0 l/m 0 min 0 min 197 W/m 41,8 km/h (6 Bft) 100,00 %
28.09.2019 11:38 16,3 C 16,1 C 18,3 C 83 % 1012,1 hPa 0,0 l/m 0 min 0 min 138 W/m 16,1 km/h (3 Bft) 100,00 %
28.09.2019 11:40 16,3 C 16,7 C 18,3 C 83 % 1012,1 hPa 0,0 l/m 0 min 0 min 172 W/m 16,1 km/h (3 Bft) 95,74 %
28.09.2019 11:42 16,3 C 16,7 C 18,3 C 83 % 1012,1 hPa 0,0 l/m 0 min 0 min 155 W/m 12,9 km/h (3 Bft) 100,00 %
28.09.2019 11:44 16,3 C 16,7 C 18,3 C 83 % 1012,1 hPa 0,0 l/m 0 min 0 min 147 W/m 19,3 km/h (3 Bft) 100,00 %
28.09.2019 11:46 16,3 C 16,1 C 18,3 C 83 % 1012,2 hPa 0,0 l/m 0 min 0 min 126 W/m 22,5 km/h (4 Bft) 100,00 %
28.09.2019 11:48 16,3 C 16,1 C 18,3 C 83 % 1012,2 hPa 0,0 l/m 0 min 0 min 111 W/m 22,5 km/h (4 Bft) 100,00 %
28.09.2019 11:50 16,3 C 16,1 C 18,3 C 83 % 1012,1 hPa 0,0 l/m 0 min 0 min 99 W/m 22,5 km/h (4 Bft) 100,00 %
28.09.2019 11:52 16,3 C 15,6 C 18,3 C 82 % 1012,2 hPa 0,0 l/m 0 min 0 min 110 W/m 41,8 km/h (6 Bft) 95,74 %
28.09.2019 11:54 16,3 C 15,6 C 18,3 C 82 % 1012,2 hPa 0,0 l/m 0 min 2 min 137 W/m 32,2 km/h (5 Bft) 100,00 %
28.09.2019 11:56 16,3 C 17,2 C 18,3 C 83 % 1012,3 hPa 0,0 l/m 0 min 0 min 205 W/m 38,6 km/h (5 Bft) 100,00 %
28.09.2019 11:58 16,3 C 16,7 C 18,3 C 83 % 1012,3 hPa 0,0 l/m 2 min 0 min 354 W/m 41,8 km/h (6 Bft) 100,00 %
28.09.2019 12:00 16,3 C 17,8 C 18,3 C 83 % 1012,2 hPa 0,0 l/m 2 min 0 min 309 W/m 22,5 km/h (4 Bft) 100,00 %
28.09.2019 12:02 16,4 C 19,4 C 18,3 C 83 % 1012,1 hPa 0,0 l/m 2 min 0 min 493 W/m 16,1 km/h (3 Bft) 100,00 %
28.09.2019 12:04 16,5 C 20,0 C 18,3 C 83 % 1012,1 hPa 0,0 l/m 2 min 0 min 501 W/m 19,3 km/h (3 Bft) 100,00 %
28.09.2019 12:08 16,7 C 18,9 C 18,3 C 83 % 1012,2 hPa 0,0 l/m 4 min 0 min 536 W/m 38,6 km/h (5 Bft) 100,00 %
28.09.2019 12:10 16,8 C 18,3 C 18,3 C 83 % 1012,3 hPa 0,0 l/m 0 min 0 min 246 W/m 29,0 km/h (5 Bft) 100,00 %
28.09.2019 12:12 16,9 C 18,9 C 18,3 C 81 % 1012,0 hPa 0,0 l/m 0 min 0 min 258 W/m 25,7 km/h (4 Bft) 100,00 %
28.09.2019 12:14 16,9 C 18,9 C 18,3 C 81 % 1012,1 hPa 0,0 l/m 0 min 0 min 273 W/m 25,7 km/h (4 Bft) 97,87 %
28.09.2019 12:16 17,0 C 19,4 C 18,3 C 81 % 1012,2 hPa 0,0 l/m 2 min 0 min 322 W/m 35,4 km/h (5 Bft) 95,74 %
28.09.2019 12:18 17,1 C 20,6 C 18,3 C 80 % 1012,2 hPa 0,0 l/m 2 min 0 min 682 W/m 22,5 km/h (4 Bft) 97,87 %
28.09.2019 12:20 17,2 C 18,3 C 18,3 C 80 % 1012,2 hPa 0,0 l/m 2 min 0 min 505 W/m 38,6 km/h (5 Bft) 97,87 %
28.09.2019 12:22 17,3 C 19,4 C 18,3 C 79 % 1012,3 hPa 0,0 l/m 2 min 0 min 360 W/m 32,2 km/h (5 Bft) 97,87 %
28.09.2019 12:24 17,4 C 20,6 C 18,3 C 79 % 1012,3 hPa 0,0 l/m 2 min 0 min 724 W/m 19,3 km/h (3 Bft) 97,83 %
28.09.2019 12:26 17,5 C 20,6 C 18,3 C 79 % 1012,3 hPa 0,0 l/m 2 min 0 min 724 W/m 22,5 km/h (4 Bft) 95,74 %
28.09.2019 12:28 17,6 C 19,4 C 18,3 C 79 % 1012,3 hPa 0,0 l/m 2 min 0 min 590 W/m 38,6 km/h (5 Bft) 97,87 %
28.09.2019 12:30 17,7 C 21,1 C 18,3 C 78 % 1012,5 hPa 0,0 l/m 2 min 0 min 405 W/m 38,6 km/h (5 Bft) 95,74 %
28.09.2019 12:32 17,7 C 22,2 C 18,3 C 77 % 1012,2 hPa 0,0 l/m 2 min 0 min 731 W/m 25,7 km/h (4 Bft) 93,62 %
28.09.2019 12:34 17,8 C 20,0 C 18,3 C 76 % 1012,4 hPa 0,0 l/m 2 min 0 min 689 W/m 38,6 km/h (5 Bft) 91,49 %
28.09.2019 12:36 17,8 C 18,3 C 18,3 C 75 % 1012,4 hPa 0,0 l/m 0 min 0 min 191 W/m 29,0 km/h (5 Bft) 93,48 %
28.09.2019 12:38 17,8 C 17,8 C 18,3 C 75 % 1012,3 hPa 0,0 l/m 0 min 0 min 119 W/m 19,3 km/h (3 Bft) 95,74 %
28.09.2019 12:40 17,8 C 18,3 C 18,3 C 75 % 1012,4 hPa 0,0 l/m 0 min 0 min 156 W/m 19,3 km/h (3 Bft) 93,62 %
28.09.2019 12:42 17,8 C 19,4 C 18,3 C 76 % 1012,3 hPa 0,0 l/m 0 min 0 min 156 W/m 16,1 km/h (3 Bft) 93,62 %
28.09.2019 12:44 17,8 C 20,0 C 18,3 C 76 % 1012,4 hPa 0,0 l/m 2 min 0 min 291 W/m 38,6 km/h (5 Bft) 93,62 %
28.09.2019 12:46 17,8 C 18,9 C 18,3 C 76 % 1012,4 hPa 0,0 l/m 0 min 0 min 224 W/m 16,1 km/h (3 Bft) 95,74 %
28.09.2019 12:48 17,8 C 17,8 C 18,3 C 76 % 1012,4 hPa 0,0 l/m 0 min 0 min 130 W/m 16,1 km/h (3 Bft) 95,65 %
28.09.2019 12:50 17,7 C 17,2 C 18,3 C 76 % 1012,3 hPa 0,0 l/m 0 min 0 min 107 W/m 29,0 km/h (5 Bft) 91,49 %
28.09.2019 12:52 17,7 C 18,9 C 18,3 C 76 % 1012,3 hPa 0,0 l/m 0 min 0 min 102 W/m 25,7 km/h (4 Bft) 89,36 %
28.09.2019 12:54 17,7 C 19,4 C 18,3 C 76 % 1012,4 hPa 0,0 l/m 2 min 0 min 640 W/m 29,0 km/h (5 Bft) 95,74 %
28.09.2019 12:56 17,7 C 20,6 C 18,3 C 76 % 1012,4 hPa 0,0 l/m 2 min 0 min 746 W/m 16,1 km/h (3 Bft) 95,74 %
28.09.2019 12:58 17,8 C 21,1 C 18,3 C 77 % 1012,5 hPa 0,0 l/m 2 min 0 min 797 W/m 25,7 km/h (4 Bft) 93,48 %
28.09.2019 13:00 17,8 C 20,6 C 18,3 C 77 % 1012,4 hPa 0,0 l/m 2 min 0 min 545 W/m 16,1 km/h (3 Bft) 95,74 %
28.09.2019 13:02 17,9 C 19,4 C 18,3 C 77 % 1012,4 hPa 0,0 l/m 2 min 0 min 312 W/m 25,7 km/h (4 Bft) 95,74 %
28.09.2019 13:04 17,9 C 18,9 C 18,3 C 77 % 1012,6 hPa 0,0 l/m 0 min 0 min 272 W/m 22,5 km/h (4 Bft) 93,62 %
28.09.2019 13:06 17,9 C 18,3 C 18,3 C 77 % 1012,6 hPa 0,0 l/m 2 min 0 min 295 W/m 25,7 km/h (4 Bft) 95,74 %
28.09.2019 13:08 17,8 C 17,8 C 18,3 C 76 % 1012,6 hPa 0,0 l/m 0 min 0 min 245 W/m 29,0 km/h (5 Bft) 93,62 %
28.09.2019 13:10 17,8 C 17,8 C 18,3 C 77 % 1012,4 hPa 0,0 l/m 0 min 0 min 200 W/m 16,1 km/h (3 Bft) 93,62 %
28.09.2019 13:12 17,8 C 17,2 C 18,3 C 77 % 1012,5 hPa 0,0 l/m 0 min 0 min 129 W/m 25,7 km/h (4 Bft) 95,65 %
28.09.2019 13:14 17,7 C 17,2 C 18,3 C 77 % 1012,5 hPa 0,0 l/m 0 min 0 min 111 W/m 22,5 km/h (4 Bft) 95,74 %
28.09.2019 13:16 17,7 C 17,2 C 18,3 C 77 % 1012,5 hPa 0,0 l/m 0 min 0 min 115 W/m 29,0 km/h (5 Bft) 95,74 %
28.09.2019 13:18 17,6 C 16,7 C 18,3 C 76 % 1012,5 hPa 0,0 l/m 0 min 0 min 96 W/m 32,2 km/h (5 Bft) 95,74 %
28.09.2019 13:20 17,6 C 16,7 C 18,3 C 77 % 1012,5 hPa 0,0 l/m 0 min 0 min 51 W/m 25,7 km/h (4 Bft) 97,87 %
28.09.2019 13:22 17,4 C 16,1 C 18,3 C 77 % 1012,5 hPa 0,0 l/m 0 min 2 min 57 W/m 22,5 km/h (4 Bft) 97,83 %
28.09.2019 13:24 17,4 C 16,1 C 18,3 C 78 % 1012,5 hPa 0,0 l/m 0 min 0 min 76 W/m 29,0 km/h (5 Bft) 97,87 %
28.09.2019 13:26 17,3 C 16,1 C 18,3 C 78 % 1012,6 hPa 0,0 l/m 0 min 0 min 75 W/m 29,0 km/h (5 Bft) 95,74 %
28.09.2019 13:28 17,3 C 16,1 C 18,3 C 78 % 1012,6 hPa 0,0 l/m 0 min 0 min 51 W/m 25,7 km/h (4 Bft) 97,87 %
28.09.2019 13:30 17,2 C 16,1 C 18,3 C 78 % 1012,5 hPa 0,0 l/m 0 min 2 min 58 W/m 35,4 km/h (5 Bft) 97,87 %
28.09.2019 13:32 17,1 C 16,1 C 18,3 C 78 % 1012,5 hPa 0,0 l/m 0 min 2 min 92 W/m 25,7 km/h (4 Bft) 97,87 %
28.09.2019 13:34 17,1 C 16,1 C 18,3 C 79 % 1012,6 hPa 0,0 l/m 0 min 0 min 141 W/m 25,7 km/h (4 Bft) 97,83 %
28.09.2019 13:36 17,0 C 16,1 C 18,3 C 79 % 1012,5 hPa 0,0 l/m 0 min 0 min 194 W/m 29,0 km/h (5 Bft) 95,74 %
28.09.2019 13:38 16,9 C 16,1 C 18,3 C 80 % 1012,6 hPa 0,0 l/m 0 min 0 min 149 W/m 35,4 km/h (5 Bft) 97,87 %
28.09.2019 13:40 16,9 C 16,1 C 18,3 C 80 % 1012,6 hPa 0,0 l/m 0 min 0 min 100 W/m 29,0 km/h (5 Bft) 95,74 %
28.09.2019 13:42 16,9 C 15,6 C 18,3 C 80 % 1012,7 hPa 0,0 l/m 0 min 2 min 59 W/m 45,1 km/h (6 Bft) 95,74 %
28.09.2019 13:44 16,8 C 13,3 C 18,3 C 81 % 1012,7 hPa 0,2 l/m 0 min 2 min 70 W/m 35,4 km/h (5 Bft) 93,62 %
28.09.2019 13:46 16,7 C 12,8 C 18,3 C 83 % 1012,7 hPa 0,0 l/m 0 min 2 min 81 W/m 48,3 km/h (6 Bft) 97,83 %
28.09.2019 13:48 16,5 C 13,3 C 18,3 C 84 % 1012,8 hPa 0,2 l/m 0 min 2 min 116 W/m 29,0 km/h (5 Bft) 97,87 %
28.09.2019 13:50 16,3 C 13,9 C 18,3 C 85 % 1012,7 hPa 0,0 l/m 0 min 2 min 230 W/m 25,7 km/h (4 Bft) 97,87 %
28.09.2019 13:52 16,3 C 13,9 C 18,3 C 86 % 1012,7 hPa 0,0 l/m 0 min 2 min 267 W/m 16,1 km/h (3 Bft) 97,87 %
28.09.2019 13:54 16,2 C 14,4 C 18,3 C 87 % 1012,6 hPa 0,0 l/m 0 min 0 min 170 W/m 9,7 km/h (2 Bft) 97,87 %
28.09.2019 13:56 16,2 C 14,4 C 18,3 C 87 % 1012,6 hPa 0,0 l/m 0 min 0 min 146 W/m 12,9 km/h (3 Bft) 100,00 %
28.09.2019 13:58 16,1 C 14,4 C 18,3 C 88 % 1012,5 hPa 0,0 l/m 0 min 0 min 135 W/m 16,1 km/h (3 Bft) 97,87 %
28.09.2019 14:00 16,1 C 14,4 C 18,3 C 88 % 1012,5 hPa 0,0 l/m 0 min 0 min 176 W/m 19,3 km/h (3 Bft) 97,87 %
28.09.2019 14:02 16,1 C 15,0 C 18,3 C 88 % 1012,5 hPa 0,0 l/m 0 min 0 min 199 W/m 16,1 km/h (3 Bft) 100,00 %
28.09.2019 14:04 16,1 C 16,1 C 18,3 C 89 % 1012,4 hPa 0,0 l/m 0 min 0 min 261 W/m 6,4 km/h (2 Bft) 100,00 %
28.09.2019 14:06 16,1 C 16,1 C 18,3 C 89 % 1012,5 hPa 0,0 l/m 2 min 0 min 328 W/m 19,3 km/h (3 Bft) 100,00 %
28.09.2019 14:08 16,1 C 16,1 C 18,3 C 89 % 1012,5 hPa 0,0 l/m 2 min 0 min 294 W/m 19,3 km/h (3 Bft) 100,00 %
28.09.2019 14:10 16,1 C 16,1 C 18,3 C 89 % 1012,4 hPa 0,0 l/m 0 min 0 min 234 W/m 19,3 km/h (3 Bft) 100,00 %
28.09.2019 14:12 16,1 C 16,1 C 18,3 C 89 % 1012,3 hPa 0,0 l/m 0 min 0 min 264 W/m 29,0 km/h (5 Bft) 100,00 %
28.09.2019 14:14 16,1 C 16,1 C 18,3 C 89 % 1012,3 hPa 0,0 l/m 2 min 0 min 316 W/m 16,1 km/h (3 Bft) 100,00 %
28.09.2019 14:16 16,2 C 16,7 C 18,3 C 88 % 1012,3 hPa 0,0 l/m 0 min 0 min 283 W/m 16,1 km/h (3 Bft) 95,74 %
28.09.2019 14:18 16,2 C 16,7 C 18,3 C 88 % 1012,3 hPa 0,0 l/m 0 min 0 min 257 W/m 22,5 km/h (4 Bft) 100,00 %
28.09.2019 14:20 16,3 C 16,1 C 18,3 C 87 % 1012,2 hPa 0,0 l/m 0 min 0 min 238 W/m 32,2 km/h (5 Bft) 100,00 %
28.09.2019 14:22 16,3 C 15,6 C 18,3 C 86 % 1012,2 hPa 0,0 l/m 0 min 0 min 205 W/m 19,3 km/h (3 Bft) 100,00 %
28.09.2019 14:24 16,4 C 16,1 C 18,3 C 86 % 1012,2 hPa 0,0 l/m 0 min 0 min 225 W/m 38,6 km/h (5 Bft) 100,00 %
28.09.2019 14:26 16,5 C 15,6 C 18,3 C 85 % 1012,1 hPa 0,0 l/m 0 min 0 min 190 W/m 25,7 km/h (4 Bft) 97,87 %
28.09.2019 14:28 16,6 C 15,6 C 18,3 C 85 % 1012,2 hPa 0,0 l/m 0 min 0 min 135 W/m 22,5 km/h (4 Bft) 100,00 %
28.09.2019 14:30 16,6 C 15,0 C 18,3 C 84 % 1012,1 hPa 0,0 l/m 0 min 0 min 130 W/m 41,8 km/h (6 Bft) 100,00 %
28.09.2019 14:32 16,7 C 15,0 C 18,3 C 82 % 1012,3 hPa 0,0 l/m 0 min 0 min 125 W/m 38,6 km/h (5 Bft) 100,00 %
28.09.2019 14:34 16,7 C 15,6 C 18,3 C 82 % 1012,1 hPa 0,0 l/m 0 min 0 min 206 W/m 29,0 km/h (5 Bft) 97,87 %
28.09.2019 14:36 16,8 C 15,6 C 18,3 C 82 % 1012,0 hPa 0,0 l/m 0 min 0 min 202 W/m 38,6 km/h (5 Bft) 100,00 %
28.09.2019 14:38 16,8 C 15,6 C 18,3 C 82 % 1011,9 hPa 0,0 l/m 0 min 0 min 188 W/m 29,0 km/h (5 Bft) 100,00 %
28.09.2019 14:40 16,9 C 15,6 C 18,3 C 81 % 1012,0 hPa 0,0 l/m 0 min 0 min 195 W/m 25,7 km/h (4 Bft) 100,00 %
28.09.2019 14:42 16,9 C 15,6 C 18,3 C 81 % 1012,0 hPa 0,0 l/m 0 min 0 min 170 W/m 25,7 km/h (4 Bft) 100,00 %
28.09.2019 14:44 16,9 C 15,6 C 18,3 C 81 % 1012,0 hPa 0,0 l/m 0 min 0 min 149 W/m 32,2 km/h (5 Bft) 100,00 %
28.09.2019 14:46 17,0 C 15,6 C 18,3 C 81 % 1011,8 hPa 0,0 l/m 0 min 0 min 135 W/m 41,8 km/h (6 Bft) 97,87 %
28.09.2019 14:48 17,0 C 15,0 C 18,3 C 81 % 1012,0 hPa 0,0 l/m 0 min 0 min 93 W/m 38,6 km/h (5 Bft) 97,87 %
28.09.2019 14:50 17,0 C 15,0 C 18,3 C 81 % 1012,0 hPa 0,0 l/m 0 min 2 min 101 W/m 35,4 km/h (5 Bft) 97,87 %
28.09.2019 14:52 17,0 C 13,9 C 18,3 C 81 % 1012,0 hPa 0,0 l/m 0 min 2 min 96 W/m 35,4 km/h (5 Bft) 93,62 %
28.09.2019 14:54 16,9 C 13,9 C 18,3 C 82 % 1012,0 hPa 0,0 l/m 0 min 2 min 72 W/m 25,7 km/h (4 Bft) 97,87 %
28.09.2019 14:56 16,8 C 13,9 C 18,3 C 82 % 1012,1 hPa 0,0 l/m 0 min 2 min 61 W/m 25,7 km/h (4 Bft) 97,83 %
28.09.2019 14:58 16,7 C 13,3 C 18,3 C 83 % 1012,0 hPa 0,0 l/m 0 min 2 min 70 W/m 41,8 km/h (6 Bft) 97,87 %
28.09.2019 15:00 16,6 C 13,9 C 18,3 C 83 % 1012,0 hPa 0,0 l/m 0 min 2 min 53 W/m 32,2 km/h (5 Bft) 95,74 %
28.09.2019 15:02 16,6 C 13,9 C 18,3 C 83 % 1012,0 hPa 0,0 l/m 0 min 2 min 72 W/m 22,5 km/h (4 Bft) 97,87 %
28.09.2019 15:04 16,5 C 14,4 C 18,3 C 84 % 1011,9 hPa 0,0 l/m 0 min 2 min 104 W/m 16,1 km/h (3 Bft) 97,87 %
28.09.2019 15:06 16,5 C 14,4 C 18,3 C 84 % 1011,9 hPa 0,0 l/m 0 min 2 min 209 W/m 25,7 km/h (4 Bft) 97,87 %
28.09.2019 15:08 16,5 C 14,4 C 18,3 C 85 % 1011,9 hPa 0,0 l/m 0 min 2 min 199 W/m 16,1 km/h (3 Bft) 97,83 %
28.09.2019 15:10 16,5 C 14,4 C 18,3 C 85 % 1011,8 hPa 0,0 l/m 0 min 2 min 223 W/m 29,0 km/h (5 Bft) 95,74 %
28.09.2019 15:12 16,6 C 15,0 C 18,3 C 85 % 1012,0 hPa 0,0 l/m 0 min 2 min 244 W/m 29,0 km/h (5 Bft) 97,87 %
28.09.2019 15:14 16,6 C 15,0 C 18,3 C 84 % 1012,1 hPa 0,0 l/m 0 min 2 min 202 W/m 22,5 km/h (4 Bft) 97,87 %
28.09.2019 15:16 16,7 C 15,0 C 18,3 C 84 % 1011,9 hPa 0,0 l/m 0 min 2 min 172 W/m 19,3 km/h (3 Bft) 95,74 %
28.09.2019 15:18 16,8 C 15,6 C 18,3 C 84 % 1011,9 hPa 0,0 l/m 0 min 0 min 176 W/m 19,3 km/h (3 Bft) 89,13 %
28.09.2019 15:20 16,8 C 15,6 C 18,3 C 83 % 1011,9 hPa 0,0 l/m 0 min 0 min 155 W/m 22,5 km/h (4 Bft) 97,87 %
28.09.2019 15:22 16,9 C 15,6 C 18,3 C 83 % 1011,9 hPa 0,0 l/m 0 min 0 min 157 W/m 16,1 km/h (3 Bft) 97,87 %
28.09.2019 15:24 16,9 C 15,6 C 18,3 C 82 % 1011,9 hPa 0,0 l/m 0 min 0 min 168 W/m 38,6 km/h (5 Bft) 97,87 %
28.09.2019 15:26 16,9 C 15,6 C 18,3 C 82 % 1011,9 hPa 0,0 l/m 0 min 0 min 153 W/m 32,2 km/h (5 Bft) 95,74 %
28.09.2019 15:28 16,9 C 15,6 C 18,3 C 81 % 1011,9 hPa 0,0 l/m 0 min 0 min 136 W/m 32,2 km/h (5 Bft) 97,87 %
28.09.2019 15:30 17,0 C 15,0 C 18,3 C 82 % 1011,9 hPa 0,0 l/m 0 min 2 min 89 W/m 22,5 km/h (4 Bft) 97,83 %
28.09.2019 15:32 17,0 C 13,9 C 18,3 C 82 % 1012,0 hPa 0,2 l/m 0 min 2 min 56 W/m 41,8 km/h (6 Bft) 100,00 %
28.09.2019 15:34 16,9 C 13,3 C 18,3 C 83 % 1012,1 hPa 0,2 l/m 0 min 2 min 59 W/m 32,2 km/h (5 Bft) 100,00 %
28.09.2019 15:36 16,9 C 13,9 C 18,3 C 84 % 1012,1 hPa 0,2 l/m 0 min 2 min 95 W/m 35,4 km/h (5 Bft) 100,00 %
28.09.2019 15:38 16,8 C 15,6 C 18,3 C 85 % 1012,1 hPa 0,2 l/m 2 min 2 min 405 W/m 12,9 km/h (3 Bft) 100,00 %
28.09.2019 15:40 16,8 C 16,7 C 18,3 C 87 % 1012,0 hPa 0,0 l/m 2 min 0 min 500 W/m 25,7 km/h (4 Bft) 97,87 %
28.09.2019 15:42 16,8 C 17,8 C 18,3 C 88 % 1012,0 hPa 0,0 l/m 2 min 0 min 620 W/m 22,5 km/h (4 Bft) 97,83 %
28.09.2019 15:44 16,9 C 16,7 C 18,3 C 88 % 1012,1 hPa 0,0 l/m 2 min 0 min 494 W/m 29,0 km/h (5 Bft) 97,87 %
28.09.2019 15:46 16,8 C 15,6 C 18,3 C 88 % 1012,2 hPa 0,0 l/m 2 min 0 min 472 W/m 48,3 km/h (6 Bft) 97,87 %
28.09.2019 15:48 16,7 C 15,6 C 18,3 C 87 % 1012,1 hPa 0,0 l/m 0 min 0 min 219 W/m 29,0 km/h (5 Bft) 95,74 %
28.09.2019 15:50 16,7 C 16,1 C 18,3 C 87 % 1012,0 hPa 0,0 l/m 2 min 0 min 266 W/m 19,3 km/h (3 Bft) 96,23 %
28.09.2019 15:52 16,7 C 16,7 C 18,3 C 87 % 1012,0 hPa 0,0 l/m 2 min 0 min 339 W/m 19,3 km/h (3 Bft) 97,87 %
28.09.2019 15:54 16,8 C 16,7 C 18,3 C 88 % 1012,1 hPa 0,0 l/m 2 min 0 min 357 W/m 22,5 km/h (4 Bft) 97,87 %
28.09.2019 15:56 16,8 C 16,1 C 18,3 C 88 % 1012,1 hPa 0,0 l/m 0 min 0 min 219 W/m 25,7 km/h (4 Bft) 95,65 %
28.09.2019 15:58 16,8 C 15,6 C 18,3 C 88 % 1012,1 hPa 0,0 l/m 0 min 0 min 214 W/m 25,7 km/h (4 Bft) 95,74 %
28.09.2019 16:00 16,7 C 15,6 C 18,3 C 86 % 1012,0 hPa 0,0 l/m 0 min 0 min 204 W/m 19,3 km/h (3 Bft) 97,87 %
28.09.2019 16:02 16,7 C 15,0 C 18,3 C 86 % 1012,3 hPa 0,0 l/m 0 min 0 min 137 W/m 29,0 km/h (5 Bft) 97,87 %
28.09.2019 16:04 16,7 C 15,0 C 18,3 C 86 % 1012,1 hPa 0,0 l/m 0 min 0 min 129 W/m 16,1 km/h (3 Bft) 97,87 %
28.09.2019 16:06 16,7 C 15,0 C 18,3 C 86 % 1012,0 hPa 0,0 l/m 0 min 0 min 143 W/m 16,1 km/h (3 Bft) 95,74 %
28.09.2019 16:08 16,7 C 16,1 C 18,3 C 86 % 1012,0 hPa 0,0 l/m 0 min 0 min 181 W/m 9,7 km/h (2 Bft) 95,65 %
28.09.2019 16:10 16,7 C 16,7 C 18,3 C 87 % 1012,0 hPa 0,0 l/m 0 min 0 min 196 W/m 16,1 km/h (3 Bft) 97,87 %
28.09.2019 16:12 16,7 C 16,1 C 18,3 C 87 % 1012,0 hPa 0,0 l/m 0 min 0 min 180 W/m 22,5 km/h (4 Bft) 95,74 %
28.09.2019 16:14 16,7 C 15,6 C 18,3 C 87 % 1012,1 hPa 0,0 l/m 0 min 0 min 132 W/m 29,0 km/h (5 Bft) 95,74 %
28.09.2019 16:16 16,7 C 15,6 C 18,3 C 86 % 1012,0 hPa 0,0 l/m 0 min 0 min 171 W/m 25,7 km/h (4 Bft) 95,74 %
28.09.2019 16:18 16,7 C 16,1 C 18,3 C 86 % 1012,0 hPa 0,0 l/m 0 min 0 min 168 W/m 29,0 km/h (5 Bft) 95,74 %
28.09.2019 16:20 16,7 C 16,7 C 18,3 C 86 % 1012,0 hPa 0,0 l/m 0 min 0 min 170 W/m 29,0 km/h (5 Bft) 93,48 %
28.09.2019 16:22 16,7 C 16,7 C 18,3 C 86 % 1012,0 hPa 0,0 l/m 2 min 0 min 244 W/m 25,7 km/h (4 Bft) 95,74 %
28.09.2019 16:24 16,7 C 18,3 C 18,3 C 86 % 1012,0 hPa 0,0 l/m 2 min 0 min 302 W/m 35,4 km/h (5 Bft) 95,74 %
28.09.2019 16:26 16,9 C 19,4 C 18,3 C 86 % 1012,0 hPa 0,0 l/m 2 min 0 min 572 W/m 16,1 km/h (3 Bft) 95,74 %
28.09.2019 16:28 16,9 C 18,9 C 18,3 C 86 % 1012,1 hPa 0,0 l/m 2 min 0 min 516 W/m 25,7 km/h (4 Bft) 95,74 %
28.09.2019 16:30 17,0 C 18,3 C 18,3 C 85 % 1012,1 hPa 0,0 l/m 2 min 0 min 364 W/m 41,8 km/h (6 Bft) 95,65 %
28.09.2019 16:32 17,0 C 17,2 C 18,3 C 85 % 1012,0 hPa 0,0 l/m 2 min 0 min 297 W/m 19,3 km/h (3 Bft) 95,74 %
28.09.2019 16:34 17,0 C 16,7 C 18,3 C 85 % 1012,1 hPa 0,0 l/m 0 min 0 min 139 W/m 25,7 km/h (4 Bft) 97,87 %
28.09.2019 16:36 17,0 C 16,7 C 18,3 C 84 % 1012,1 hPa 0,0 l/m 0 min 0 min 147 W/m 35,4 km/h (5 Bft) 97,87 %
28.09.2019 16:38 17,0 C 17,2 C 18,3 C 84 % 1012,0 hPa 0,0 l/m 0 min 0 min 185 W/m 32,2 km/h (5 Bft) 97,87 %
28.09.2019 16:40 16,9 C 17,2 C 18,3 C 84 % 1012,0 hPa 0,0 l/m 0 min 0 min 185 W/m 22,5 km/h (4 Bft) 93,62 %
28.09.2019 16:42 17,0 C 18,3 C 18,3 C 84 % 1011,9 hPa 0,0 l/m 0 min 0 min 174 W/m 25,7 km/h (4 Bft) 97,87 %
28.09.2019 16:44 17,0 C 17,2 C 18,3 C 84 % 1012,0 hPa 0,0 l/m 0 min 0 min 169 W/m 35,4 km/h (5 Bft) 97,83 %
28.09.2019 16:46 17,0 C 16,7 C 18,3 C 84 % 1012,0 hPa 0,0 l/m 0 min 0 min 144 W/m 32,2 km/h (5 Bft) 97,87 %
28.09.2019 16:48 17,0 C 16,7 C 18,3 C 84 % 1012,0 hPa 0,0 l/m 0 min 0 min 133 W/m 32,2 km/h (5 Bft) 97,87 %
28.09.2019 16:50 16,9 C 16,7 C 18,3 C 84 % 1012,0 hPa 0,0 l/m 0 min 0 min 136 W/m 29,0 km/h (5 Bft) 95,74 %
28.09.2019 16:52 16,9 C 16,1 C 18,3 C 84 % 1011,9 hPa 0,0 l/m 0 min 0 min 120 W/m 25,7 km/h (4 Bft) 97,87 %
28.09.2019 16:54 16,9 C 16,1 C 18,3 C 84 % 1012,0 hPa 0,0 l/m 0 min 0 min 102 W/m 25,7 km/h (4 Bft) 97,83 %
28.09.2019 16:56 16,8 C 16,1 C 18,3 C 85 % 1012,0 hPa 0,0 l/m 0 min 0 min 87 W/m 25,7 km/h (4 Bft) 95,74 %
28.09.2019 16:58 16,8 C 16,1 C 18,3 C 85 % 1012,0 hPa 0,0 l/m 0 min 0 min 77 W/m 29,0 km/h (5 Bft) 97,87 %
28.09.2019 17:00 16,8 C 15,6 C 18,3 C 85 % 1012,0 hPa 0,0 l/m 0 min 0 min 67 W/m 25,7 km/h (4 Bft) 97,87 %
28.09.2019 17:02 16,7 C 15,6 C 18,3 C 85 % 1011,9 hPa 0,0 l/m 0 min 0 min 52 W/m 16,1 km/h (3 Bft) 97,87 %
28.09.2019 17:04 16,7 C 15,6 C 18,3 C 85 % 1012,0 hPa 0,0 l/m 0 min 0 min 52 W/m 16,1 km/h (3 Bft) 97,87 %
28.09.2019 17:06 16,7 C 15,6 C 18,3 C 85 % 1012,0 hPa 0,0 l/m 0 min 0 min 51 W/m 32,2 km/h (5 Bft) 97,83 %
28.09.2019 17:08 16,7 C 15,6 C 18,3 C 86 % 1012,0 hPa 0,0 l/m 0 min 0 min 53 W/m 25,7 km/h (4 Bft) 97,87 %
28.09.2019 17:10 16,6 C 15,6 C 18,3 C 86 % 1012,0 hPa 0,0 l/m 0 min 0 min 53 W/m 25,7 km/h (4 Bft) 97,87 %
28.09.2019 17:12 16,6 C 15,0 C 18,3 C 86 % 1012,0 hPa 0,0 l/m 0 min 2 min 55 W/m 16,1 km/h (3 Bft) 97,87 %
28.09.2019 17:14 16,6 C 15,0 C 18,3 C 86 % 1012,0 hPa 0,0 l/m 0 min 2 min 55 W/m 6,4 km/h (2 Bft) 100,00 %
28.09.2019 17:16 16,6 C 14,4 C 18,3 C 87 % 1012,1 hPa 0,0 l/m 0 min 2 min 60 W/m 16,1 km/h (3 Bft) 100,00 %
28.09.2019 17:18 16,5 C 14,4 C 18,3 C 87 % 1012,1 hPa 0,0 l/m 0 min 2 min 52 W/m 22,5 km/h (4 Bft) 100,00 %
28.09.2019 17:20 16,4 C 13,9 C 18,3 C 87 % 1012,2 hPa 0,0 l/m 0 min 2 min 41 W/m 29,0 km/h (5 Bft) 100,00 %
28.09.2019 17:22 16,4 C 13,9 C 18,3 C 88 % 1012,1 hPa 0,4 l/m 0 min 2 min 37 W/m 25,7 km/h (4 Bft) 100,00 %
28.09.2019 17:24 16,3 C 13,3 C 18,3 C 88 % 1012,1 hPa 0,4 l/m 0 min 2 min 35 W/m 29,0 km/h (5 Bft) 97,87 %
28.09.2019 17:26 16,3 C 13,3 C 18,3 C 89 % 1012,1 hPa 0,2 l/m 0 min 2 min 38 W/m 16,1 km/h (3 Bft) 95,74 %
28.09.2019 17:28 16,2 C 13,3 C 18,3 C 89 % 1012,1 hPa 0,0 l/m 0 min 2 min 53 W/m 19,3 km/h (3 Bft) 95,74 %
28.09.2019 17:30 16,1 C 13,3 C 18,3 C 89 % 1012,1 hPa 0,2 l/m 0 min 2 min 71 W/m 22,5 km/h (4 Bft) 97,83 %
28.09.2019 17:32 16,0 C 13,3 C 18,3 C 90 % 1011,9 hPa 0,0 l/m 0 min 2 min 85 W/m 12,9 km/h (3 Bft) 95,74 %
28.09.2019 17:34 15,9 C 13,9 C 18,3 C 90 % 1011,9 hPa 0,0 l/m 0 min 0 min 103 W/m 16,1 km/h (3 Bft) 97,87 %
28.09.2019 17:36 15,8 C 13,9 C 18,3 C 90 % 1011,9 hPa 0,0 l/m 0 min 0 min 114 W/m 6,4 km/h (2 Bft) 97,87 %
28.09.2019 17:38 15,8 C 13,9 C 18,3 C 90 % 1011,9 hPa 0,0 l/m 0 min 0 min 95 W/m 22,5 km/h (4 Bft) 97,87 %
28.09.2019 17:40 15,7 C 13,9 C 18,3 C 90 % 1011,9 hPa 0,0 l/m 0 min 0 min 82 W/m 22,5 km/h (4 Bft) 97,87 %
28.09.2019 17:42 15,7 C 13,9 C 18,3 C 91 % 1011,9 hPa 0,0 l/m 0 min 0 min 72 W/m 19,3 km/h (3 Bft) 97,83 %
28.09.2019 17:44 15,6 C 13,9 C 18,3 C 91 % 1012,0 hPa 0,0 l/m 0 min 0 min 64 W/m 22,5 km/h (4 Bft) 95,74 %
28.09.2019 17:46 15,6 C 13,9 C 18,3 C 91 % 1012,0 hPa 0,0 l/m 0 min 0 min 55 W/m 22,5 km/h (4 Bft) 97,87 %
28.09.2019 17:48 15,5 C 13,9 C 18,3 C 92 % 1012,0 hPa 0,0 l/m 0 min 0 min 47 W/m 19,3 km/h (3 Bft) 97,87 %
28.09.2019 17:50 15,4 C 13,9 C 18,3 C 92 % 1012,1 hPa 0,0 l/m 0 min 0 min 49 W/m 22,5 km/h (4 Bft) 95,74 %
28.09.2019 17:52 15,4 C 13,3 C 18,3 C 92 % 1012,0 hPa 0,0 l/m 0 min 2 min 40 W/m 22,5 km/h (4 Bft) 95,74 %
28.09.2019 17:54 15,3 C 13,3 C 18,3 C 92 % 1012,1 hPa 0,0 l/m 0 min 2 min 33 W/m 22,5 km/h (4 Bft) 91,67 %
28.09.2019 17:56 15,3 C 13,3 C 18,3 C 92 % 1011,9 hPa 0,0 l/m 0 min 2 min 35 W/m 22,5 km/h (4 Bft) 97,83 %
28.09.2019 17:58 15,3 C 13,3 C 18,3 C 93 % 1012,0 hPa 0,0 l/m 0 min 2 min 35 W/m 16,1 km/h (3 Bft) 97,87 %
28.09.2019 18:00 15,3 C 13,3 C 18,3 C 93 % 1012,1 hPa 0,0 l/m 0 min 2 min 41 W/m 22,5 km/h (4 Bft) 95,74 %
28.09.2019 18:02 15,2 C 13,3 C 18,3 C 93 % 1012,1 hPa 0,2 l/m 0 min 2 min 41 W/m 22,5 km/h (4 Bft) 98,00 %
28.09.2019 18:04 15,2 C 13,3 C 18,3 C 93 % 1012,1 hPa 0,0 l/m 0 min 2 min 52 W/m 12,9 km/h (3 Bft) 95,74 %
28.09.2019 18:08 15,2 C 13,3 C 18,3 C 93 % 1011,9 hPa 0,0 l/m 0 min 4 min 65 W/m 22,5 km/h (4 Bft) 97,85 %
28.09.2019 18:10 15,1 C 13,3 C 18,3 C 93 % 1012,0 hPa 0,2 l/m 0 min 2 min 75 W/m 22,5 km/h (4 Bft) 97,87 %
28.09.2019 18:12 15,1 C 13,3 C 18,3 C 94 % 1012,0 hPa 0,0 l/m 0 min 0 min 82 W/m 25,7 km/h (4 Bft) 97,87 %
28.09.2019 18:14 15,1 C 13,3 C 18,3 C 94 % 1011,8 hPa 0,0 l/m 0 min 0 min 77 W/m 25,7 km/h (4 Bft) 100,00 %
28.09.2019 18:16 15,1 C 13,3 C 18,3 C 94 % 1011,8 hPa 0,0 l/m 0 min 0 min 64 W/m 22,5 km/h (4 Bft) 97,87 %
28.09.2019 18:18 15,0 C 13,3 C 18,3 C 94 % 1011,9 hPa 0,0 l/m 0 min 0 min 51 W/m 22,5 km/h (4 Bft) 100,00 %
28.09.2019 18:20 14,9 C 13,3 C 18,3 C 94 % 1012,0 hPa 0,0 l/m 0 min 0 min 44 W/m 25,7 km/h (4 Bft) 100,00 %
28.09.2019 18:22 14,9 C 13,3 C 18,3 C 94 % 1012,0 hPa 0,0 l/m 0 min 0 min 42 W/m 19,3 km/h (3 Bft) 97,87 %
28.09.2019 18:24 14,9 C 13,3 C 18,3 C 94 % 1012,0 hPa 0,0 l/m 0 min 0 min 46 W/m 29,0 km/h (5 Bft) 100,00 %
28.09.2019 18:26 14,9 C 13,3 C 18,3 C 94 % 1011,9 hPa 0,0 l/m 0 min 0 min 51 W/m 32,2 km/h (5 Bft) 100,00 %
28.09.2019 18:28 14,9 C 13,9 C 18,3 C 94 % 1012,0 hPa 0,0 l/m 0 min 0 min 49 W/m 19,3 km/h (3 Bft) 97,87 %
28.09.2019 18:30 14,9 C 13,3 C 18,3 C 94 % 1012,0 hPa 0,0 l/m 0 min 0 min 31 W/m 22,5 km/h (4 Bft) 100,00 %
28.09.2019 18:32 14,8 C 13,3 C 18,3 C 94 % 1012,0 hPa 0,0 l/m 0 min 0 min 28 W/m 19,3 km/h (3 Bft) 100,00 %
28.09.2019 18:34 14,8 C 13,3 C 18,3 C 94 % 1012,2 hPa 0,0 l/m 0 min 0 min 26 W/m 32,2 km/h (5 Bft) 100,00 %
28.09.2019 18:36 14,8 C 13,3 C 18,3 C 95 % 1012,1 hPa 0,0 l/m 0 min 0 min 24 W/m 19,3 km/h (3 Bft) 100,00 %
28.09.2019 18:38 14,8 C 13,3 C 18,3 C 95 % 1012,1 hPa 0,0 l/m 0 min 0 min 21 W/m 22,5 km/h (4 Bft) 100,00 %
28.09.2019 18:40 14,8 C 13,3 C 18,3 C 95 % 1012,1 hPa 0,0 l/m 0 min 0 min 19 W/m 25,7 km/h (4 Bft) 100,00 %
28.09.2019 18:42 14,7 C 13,3 C 18,3 C 95 % 1012,1 hPa 0,0 l/m 0 min 0 min 16 W/m 22,5 km/h (4 Bft) 97,87 %
28.09.2019 18:44 14,7 C 13,3 C 18,3 C 95 % 1012,0 hPa 0,0 l/m 0 min 0 min 14 W/m 25,7 km/h (4 Bft) 100,00 %
28.09.2019 18:46 14,7 C 13,3 C 18,3 C 95 % 1012,0 hPa 0,0 l/m 0 min 0 min 12 W/m 35,4 km/h (5 Bft) 100,00 %
28.09.2019 18:48 14,7 C 13,3 C 18,3 C 95 % 1012,0 hPa 0,0 l/m 0 min 0 min 11 W/m 32,2 km/h (5 Bft) 100,00 %
28.09.2019 18:50 14,7 C 13,3 C 18,3 C 94 % 1012,0 hPa 0,0 l/m 0 min 0 min 11 W/m 45,1 km/h (6 Bft) 100,00 %
28.09.2019 18:52 14,6 C 13,3 C 18,3 C 94 % 1012,1 hPa 0,0 l/m 0 min 0 min 13 W/m 22,5 km/h (4 Bft) 100,00 %
28.09.2019 18:54 14,6 C 13,3 C 18,3 C 94 % 1012,1 hPa 0,0 l/m 0 min 2 min 14 W/m 29,0 km/h (5 Bft) 100,00 %
28.09.2019 18:56 14,6 C 13,3 C 18,3 C 94 % 1012,1 hPa 0,0 l/m 0 min 0 min 13 W/m 16,1 km/h (3 Bft) 100,00 %
28.09.2019 18:58 14,6 C 13,3 C 18,3 C 94 % 1012,0 hPa 0,0 l/m 0 min 0 min 12 W/m 29,0 km/h (5 Bft) 95,74 %
28.09.2019 19:00 14,6 C 13,3 C 18,3 C 94 % 1012,0 hPa 0,0 l/m 0 min 0 min 14 W/m 22,5 km/h (4 Bft) 97,83 %
28.09.2019 19:02 14,6 C 13,3 C 18,3 C 94 % 1012,1 hPa 0,0 l/m 0 min 0 min 13 W/m 19,3 km/h (3 Bft) 95,74 %
28.09.2019 19:04 14,5 C 13,3 C 18,3 C 94 % 1012,1 hPa 0,0 l/m 0 min 0 min 11 W/m 19,3 km/h (3 Bft) 97,87 %
28.09.2019 19:06 14,5 C 13,3 C 18,3 C 94 % 1012,1 hPa 0,0 l/m 0 min 0 min 10 W/m 25,7 km/h (4 Bft) 97,87 %
28.09.2019 19:08 14,5 C 13,3 C 18,3 C 94 % 1012,3 hPa 0,0 l/m 0 min 0 min 7 W/m 22,5 km/h (4 Bft) 97,87 %
28.09.2019 19:10 14,5 C 13,3 C 18,3 C 94 % 1012,3 hPa 0,0 l/m 0 min 0 min 6 W/m 22,5 km/h (4 Bft) 95,74 %
28.09.2019 19:12 14,5 C 13,3 C 18,3 C 94 % 1012,2 hPa 0,0 l/m 0 min 0 min 5 W/m 22,5 km/h (4 Bft) 95,65 %
28.09.2019 19:14 14,5 C 13,3 C 18,3 C 94 % 1012,2 hPa 0,0 l/m 0 min 0 min 5 W/m 12,9 km/h (3 Bft) 95,74 %
28.09.2019 19:16 14,5 C 13,3 C 18,3 C 94 % 1012,2 hPa 0,0 l/m 0 min 0 min 5 W/m 16,1 km/h (3 Bft) 97,87 %
28.09.2019 19:18 14,5 C 13,3 C 18,3 C 94 % 1012,2 hPa 0,0 l/m 0 min 0 min 4 W/m 25,7 km/h (4 Bft) 95,74 %
28.09.2019 19:20 14,5 C 13,3 C 18,3 C 93 % 1012,3 hPa 0,0 l/m 0 min 0 min 0 W/m 22,5 km/h (4 Bft) 93,62 %
28.09.2019 19:22 14,5 C 13,3 C 18,3 C 93 % 1012,2 hPa 0,0 l/m 0 min 0 min 0 W/m 12,9 km/h (3 Bft) 95,74 %
28.09.2019 19:24 14,5 C 13,3 C 18,3 C 93 % 1012,3 hPa 0,0 l/m 0 min 0 min 0 W/m 25,7 km/h (4 Bft) 95,65 %
28.09.2019 19:26 14,4 C 13,3 C 18,3 C 93 % 1012,4 hPa 0,0 l/m 0 min 0 min 0 W/m 29,0 km/h (5 Bft) 95,74 %
28.09.2019 19:28 14,5 C 13,3 C 18,3 C 93 % 1012,4 hPa 0,0 l/m 0 min 0 min 0 W/m 22,5 km/h (4 Bft) 95,74 %
28.09.2019 19:30 14,5 C 13,3 C 18,3 C 93 % 1012,4 hPa 0,0 l/m 0 min 0 min 0 W/m 16,1 km/h (3 Bft) 95,74 %
28.09.2019 19:32 14,5 C 13,3 C 18,3 C 93 % 1012,4 hPa 0,0 l/m 0 min 0 min 0 W/m 25,7 km/h (4 Bft) 95,74 %
28.09.2019 19:34 14,5 C 13,3 C 18,3 C 93 % 1012,4 hPa 0,0 l/m 0 min 0 min 0 W/m 25,7 km/h (4 Bft) 95,65 %
28.09.2019 19:36 14,5 C 13,3 C 18,3 C 93 % 1012,4 hPa 0,0 l/m 0 min 0 min 0 W/m 12,9 km/h (3 Bft) 95,74 %
28.09.2019 19:38 14,5 C 13,3 C 18,3 C 94 % 1012,4 hPa 0,0 l/m 0 min 0 min 0 W/m 25,7 km/h (4 Bft) 95,74 %
28.09.2019 19:40 14,5 C 13,3 C 18,3 C 93 % 1012,4 hPa 0,0 l/m 0 min 0 min 0 W/m 19,3 km/h (3 Bft) 95,74 %
28.09.2019 19:42 14,5 C 13,9 C 18,3 C 94 % 1012,5 hPa 0,0 l/m 0 min 0 min 0 W/m 25,7 km/h (4 Bft) 93,62 %
28.09.2019 19:44 14,5 C 13,9 C 18,3 C 94 % 1012,5 hPa 0,0 l/m 0 min 0 min 0 W/m 22,5 km/h (4 Bft) 95,74 %
28.09.2019 19:46 14,5 C 13,9 C 18,3 C 94 % 1012,5 hPa 0,0 l/m 0 min 0 min 0 W/m 19,3 km/h (3 Bft) 93,48 %
28.09.2019 19:48 14,5 C 13,9 C 18,3 C 94 % 1012,6 hPa 0,0 l/m 0 min 0 min 0 W/m 25,7 km/h (4 Bft) 95,74 %
28.09.2019 19:50 14,5 C 13,9 C 18,3 C 94 % 1012,7 hPa 0,0 l/m 0 min 0 min 0 W/m 29,0 km/h (5 Bft) 95,74 %
28.09.2019 19:52 14,5 C 13,9 C 18,3 C 94 % 1012,6 hPa 0,0 l/m 0 min 0 min 0 W/m 25,7 km/h (4 Bft) 93,62 %
28.09.2019 19:54 14,5 C 13,9 C 18,3 C 94 % 1012,6 hPa 0,0 l/m 0 min 0 min 0 W/m 16,1 km/h (3 Bft) 95,74 %
28.09.2019 19:56 14,5 C 13,9 C 18,3 C 94 % 1012,6 hPa 0,0 l/m 0 min 0 min 0 W/m 19,3 km/h (3 Bft) 95,74 %
28.09.2019 19:58 14,5 C 13,9 C 18,3 C 94 % 1012,6 hPa 0,0 l/m 0 min 0 min 0 W/m 19,3 km/h (3 Bft) 95,65 %
28.09.2019 20:00 14,5 C 13,9 C 18,3 C 94 % 1012,7 hPa 0,0 l/m 0 min 0 min 0 W/m 22,5 km/h (4 Bft) 93,62 %
28.09.2019 20:02 14,5 C 13,9 C 18,3 C 94 % 1012,6 hPa 0,0 l/m 0 min 0 min 0 W/m 22,5 km/h (4 Bft) 95,74 %
28.09.2019 20:04 14,6 C 13,9 C 18,3 C 94 % 1012,7 hPa 0,0 l/m 0 min 0 min 0 W/m 19,3 km/h (3 Bft) 96,30 %
28.09.2019 20:06 14,6 C 13,9 C 18,3 C 94 % 1012,6 hPa 0,0 l/m 0 min 0 min 0 W/m 19,3 km/h (3 Bft) 97,37 %
28.09.2019 20:08 14,6 C 13,9 C 18,3 C 94 % 1012,6 hPa 0,0 l/m 0 min 0 min 0 W/m 19,3 km/h (3 Bft) 97,87 %
28.09.2019 20:10 14,6 C 13,9 C 18,3 C 94 % 1012,7 hPa 0,0 l/m 0 min 0 min 0 W/m 19,3 km/h (3 Bft) 100,00 %
28.09.2019 20:12 14,6 C 13,9 C 18,3 C 94 % 1012,7 hPa 0,0 l/m 0 min 0 min 0 W/m 25,7 km/h (4 Bft) 97,92 %
28.09.2019 20:14 14,6 C 13,9 C 18,3 C 94 % 1012,6 hPa 0,0 l/m 0 min 0 min 0 W/m 22,5 km/h (4 Bft) 95,74 %
28.09.2019 20:16 14,6 C 13,9 C 18,3 C 94 % 1012,6 hPa 0,0 l/m 0 min 0 min 0 W/m 19,3 km/h (3 Bft) 97,87 %
28.09.2019 20:18 14,6 C 13,9 C 18,3 C 94 % 1012,6 hPa 0,0 l/m 0 min 0 min 0 W/m 29,0 km/h (5 Bft) 97,87 %
28.09.2019 20:20 14,6 C 13,9 C 18,3 C 94 % 1012,5 hPa 0,0 l/m 0 min 0 min 0 W/m 22,5 km/h (4 Bft) 97,87 %
28.09.2019 20:22 14,6 C 13,9 C 18,3 C 94 % 1012,6 hPa 0,0 l/m 0 min 0 min 0 W/m 19,3 km/h (3 Bft) 95,65 %
28.09.2019 20:24 14,6 C 13,9 C 18,3 C 94 % 1012,5 hPa 0,0 l/m 0 min 0 min 0 W/m 16,1 km/h (3 Bft) 95,74 %
28.09.2019 20:26 14,6 C 13,9 C 18,3 C 94 % 1012,7 hPa 0,0 l/m 0 min 0 min 0 W/m 16,1 km/h (3 Bft) 97,87 %
28.09.2019 20:28 14,6 C 13,9 C 18,3 C 94 % 1012,7 hPa 0,0 l/m 0 min 2 min 0 W/m 19,3 km/h (3 Bft) 97,87 %
28.09.2019 20:30 14,6 C 13,9 C 18,3 C 94 % 1012,7 hPa 0,0 l/m 0 min 2 min 0 W/m 16,1 km/h (3 Bft) 97,87 %
28.09.2019 20:32 14,6 C 13,3 C 18,3 C 94 % 1012,7 hPa 0,0 l/m 0 min 2 min 0 W/m 19,3 km/h (3 Bft) 97,83 %
28.09.2019 20:34 14,6 C 13,3 C 18,3 C 94 % 1012,7 hPa 0,0 l/m 0 min 2 min 0 W/m 19,3 km/h (3 Bft) 97,87 %
28.09.2019 20:36 14,6 C 12,8 C 18,3 C 94 % 1012,7 hPa 0,0 l/m 0 min 2 min 0 W/m 22,5 km/h (4 Bft) 97,87 %
28.09.2019 20:38 14,6 C 12,8 C 18,3 C 95 % 1012,7 hPa 0,0 l/m 0 min 2 min 0 W/m 16,1 km/h (3 Bft) 97,87 %
28.09.2019 20:40 14,6 C 13,3 C 18,3 C 95 % 1012,7 hPa 0,0 l/m 0 min 0 min 0 W/m 19,3 km/h (3 Bft) 96,30 %
28.09.2019 20:42 14,6 C 13,3 C 18,3 C 95 % 1012,7 hPa 0,0 l/m 0 min 0 min 0 W/m 12,9 km/h (3 Bft) 97,87 %
28.09.2019 20:44 14,6 C 13,3 C 18,3 C 95 % 1012,7 hPa 0,0 l/m 0 min 2 min 0 W/m 12,9 km/h (3 Bft) 97,87 %
28.09.2019 20:46 14,6 C 13,3 C 18,3 C 95 % 1012,7 hPa 0,0 l/m 0 min 0 min 0 W/m 6,4 km/h (2 Bft) 97,87 %
28.09.2019 20:48 14,6 C 13,3 C 18,3 C 95 % 1012,7 hPa 0,0 l/m 0 min 0 min 0 W/m 6,4 km/h (2 Bft) 97,83 %
28.09.2019 20:50 14,6 C 13,3 C 18,3 C 95 % 1012,7 hPa 0,0 l/m 0 min 0 min 0 W/m 12,9 km/h (3 Bft) 100,00 %
28.09.2019 20:52 14,6 C 13,3 C 18,3 C 95 % 1012,6 hPa 0,0 l/m 0 min 0 min 0 W/m 12,9 km/h (3 Bft) 97,87 %
28.09.2019 20:54 14,6 C 13,3 C 18,3 C 95 % 1012,7 hPa 0,0 l/m 0 min 0 min 0 W/m 12,9 km/h (3 Bft) 95,74 %
28.09.2019 20:56 14,6 C 13,3 C 18,3 C 95 % 1012,7 hPa 0,0 l/m 0 min 0 min 0 W/m 19,3 km/h (3 Bft) 97,87 %
28.09.2019 20:58 14,6 C 13,3 C 18,3 C 95 % 1012,6 hPa 0,0 l/m 0 min 0 min 0 W/m 6,4 km/h (2 Bft) 100,00 %
28.09.2019 21:00 14,6 C 13,3 C 18,3 C 95 % 1012,7 hPa 0,0 l/m 0 min 2 min 0 W/m 3,2 km/h (1 Bft) 97,87 %
28.09.2019 21:02 14,6 C 13,3 C 18,3 C 95 % 1012,7 hPa 0,0 l/m 0 min 2 min 0 W/m 6,4 km/h (2 Bft) 97,83 %
28.09.2019 21:04 14,6 C 13,3 C 18,3 C 95 % 1012,7 hPa 0,2 l/m 0 min 2 min 0 W/m 6,4 km/h (2 Bft) 100,00 %
28.09.2019 21:06 14,6 C 12,8 C 18,3 C 95 % 1012,7 hPa 0,0 l/m 0 min 2 min 0 W/m 6,4 km/h (2 Bft) 100,00 %
28.09.2019 21:08 14,6 C 12,8 C 18,3 C 95 % 1012,7 hPa 0,0 l/m 0 min 2 min 0 W/m 6,4 km/h (2 Bft) 100,00 %
28.09.2019 21:10 14,6 C 12,8 C 18,3 C 95 % 1012,8 hPa 0,0 l/m 0 min 2 min 0 W/m 3,2 km/h (1 Bft) 100,00 %
28.09.2019 21:12 14,6 C 12,8 C 18,3 C 95 % 1012,8 hPa 0,2 l/m 0 min 2 min 0 W/m 3,2 km/h (1 Bft) 93,75 %
28.09.2019 21:14 14,6 C 12,8 C 18,3 C 95 % 1012,8 hPa 0,2 l/m 0 min 2 min 0 W/m 3,2 km/h (1 Bft) 100,00 %
28.09.2019 21:16 14,6 C 12,8 C 18,3 C 95 % 1012,8 hPa 0,2 l/m 0 min 2 min 0 W/m 9,7 km/h (2 Bft) 100,00 %
28.09.2019 21:18 14,6 C 12,8 C 18,3 C 95 % 1013,0 hPa 1,0 l/m 0 min 2 min 0 W/m 12,9 km/h (3 Bft) 95,74 %
28.09.2019 21:20 14,6 C 12,8 C 18,3 C 96 % 1012,8 hPa 0,2 l/m 0 min 2 min 0 W/m 6,4 km/h (2 Bft) 100,00 %
28.09.2019 21:22 14,5 C 12,8 C 18,3 C 96 % 1012,7 hPa 0,0 l/m 0 min 2 min 0 W/m 6,4 km/h (2 Bft) 97,87 %
28.09.2019 21:24 14,5 C 12,8 C 18,3 C 96 % 1012,7 hPa 0,0 l/m 0 min 0 min 0 W/m 16,1 km/h (3 Bft) 97,83 %
28.09.2019 21:26 14,5 C 12,8 C 18,3 C 96 % 1012,7 hPa 0,0 l/m 0 min 2 min 0 W/m 19,3 km/h (3 Bft) 100,00 %
28.09.2019 21:28 14,4 C 12,8 C 18,3 C 96 % 1012,6 hPa 0,0 l/m 0 min 0 min 0 W/m 6,4 km/h (2 Bft) 100,00 %
28.09.2019 21:30 14,4 C 12,8 C 18,3 C 96 % 1012,7 hPa 0,0 l/m 0 min 0 min 0 W/m 6,4 km/h (2 Bft) 100,00 %
28.09.2019 21:32 14,4 C 12,8 C 18,3 C 96 % 1012,7 hPa 0,0 l/m 0 min 0 min 0 W/m 6,4 km/h (2 Bft) 100,00 %
28.09.2019 21:34 14,4 C 12,8 C 18,3 C 96 % 1012,6 hPa 0,0 l/m 0 min 0 min 0 W/m 19,3 km/h (3 Bft) 97,87 %
28.09.2019 21:36 14,4 C 12,8 C 18,3 C 96 % 1012,6 hPa 0,0 l/m 0 min 0 min 0 W/m 22,5 km/h (4 Bft) 100,00 %
28.09.2019 21:38 14,3 C 12,8 C 18,3 C 96 % 1012,7 hPa 0,0 l/m 0 min 0 min 0 W/m 19,3 km/h (3 Bft) 100,00 %
28.09.2019 21:40 14,3 C 12,8 C 18,3 C 96 % 1012,7 hPa 0,0 l/m 0 min 0 min 0 W/m 29,0 km/h (5 Bft) 100,00 %
28.09.2019 21:42 14,2 C 12,8 C 18,3 C 96 % 1012,6 hPa 0,0 l/m 0 min 0 min 0 W/m 19,3 km/h (3 Bft) 100,00 %
28.09.2019 21:44 14,2 C 12,8 C 18,3 C 96 % 1012,6 hPa 0,0 l/m 0 min 0 min 0 W/m 19,3 km/h (3 Bft) 100,00 %
28.09.2019 21:46 14,2 C 12,8 C 18,3 C 96 % 1012,6 hPa 0,0 l/m 0 min 0 min 0 W/m 16,1 km/h (3 Bft) 100,00 %
28.09.2019 21:48 14,2 C 12,8 C 18,3 C 96 % 1012,6 hPa 0,0 l/m 0 min 0 min 0 W/m 6,4 km/h (2 Bft) 100,00 %
28.09.2019 21:50 14,2 C 12,8 C 18,3 C 96 % 1012,6 hPa 0,0 l/m 0 min 0 min 0 W/m 16,1 km/h (3 Bft) 100,00 %
28.09.2019 21:52 14,2 C 12,8 C 18,3 C 96 % 1012,6 hPa 0,0 l/m 0 min 0 min 0 W/m 16,1 km/h (3 Bft) 100,00 %
28.09.2019 21:54 14,2 C 12,8 C 18,3 C 96 % 1012,6 hPa 0,0 l/m 0 min 0 min 0 W/m 16,1 km/h (3 Bft) 100,00 %
28.09.2019 21:56 14,2 C 12,8 C 18,3 C 96 % 1012,6 hPa 0,0 l/m 0 min 0 min 0 W/m 19,3 km/h (3 Bft) 100,00 %
28.09.2019 21:58 14,2 C 12,8 C 18,3 C 96 % 1012,6 hPa 0,0 l/m 0 min 0 min 0 W/m 16,1 km/h (3 Bft) 97,83 %
28.09.2019 22:00 14,2 C 12,8 C 18,3 C 96 % 1012,7 hPa 0,0 l/m 0 min 0 min 0 W/m 29,0 km/h (5 Bft) 100,00 %
28.09.2019 22:02 14,2 C 12,8 C 18,3 C 96 % 1012,7 hPa 0,0 l/m 0 min 0 min 0 W/m 29,0 km/h (5 Bft) 100,00 %
28.09.2019 22:04 14,2 C 12,8 C 18,3 C 96 % 1012,6 hPa 0,0 l/m 0 min 0 min 0 W/m 16,1 km/h (3 Bft) 97,87 %
28.09.2019 22:06 14,2 C 12,8 C 18,3 C 96 % 1012,7 hPa 0,0 l/m 0 min 0 min 0 W/m 16,1 km/h (3 Bft) 97,87 %
28.09.2019 22:08 14,2 C 12,8 C 18,3 C 96 % 1012,6 hPa 0,0 l/m 0 min 0 min 0 W/m 16,1 km/h (3 Bft) 97,83 %
28.09.2019 22:10 14,2 C 12,8 C 18,3 C 96 % 1012,7 hPa 0,0 l/m 0 min 0 min 0 W/m 29,0 km/h (5 Bft) 100,00 %
28.09.2019 22:12 14,2 C 12,8 C 18,3 C 96 % 1012,7 hPa 0,0 l/m 0 min 0 min 0 W/m 16,1 km/h (3 Bft) 100,00 %
28.09.2019 22:14 14,1 C 12,8 C 18,3 C 96 % 1012,7 hPa 0,0 l/m 0 min 0 min 0 W/m 19,3 km/h (3 Bft) 97,87 %
28.09.2019 22:16 14,1 C 12,8 C 18,3 C 96 % 1012,6 hPa 0,0 l/m 0 min 0 min 0 W/m 22,5 km/h (4 Bft) 97,87 %
28.09.2019 22:18 14,1 C 12,8 C 18,3 C 96 % 1012,6 hPa 0,0 l/m 0 min 0 min 0 W/m 16,1 km/h (3 Bft) 97,87 %
28.09.2019 22:20 14,1 C 12,8 C 18,3 C 96 % 1012,6 hPa 0,0 l/m 0 min 0 min 0 W/m 16,1 km/h (3 Bft) 97,83 %
28.09.2019 22:22 14,1 C 12,8 C 18,3 C 96 % 1012,6 hPa 0,0 l/m 0 min 0 min 0 W/m 19,3 km/h (3 Bft) 97,87 %
28.09.2019 22:24 14,1 C 12,8 C 18,3 C 96 % 1012,6 hPa 0,0 l/m 0 min 0 min 0 W/m 19,3 km/h (3 Bft) 97,87 %
28.09.2019 22:26 14,1 C 12,8 C 18,3 C 96 % 1012,7 hPa 0,0 l/m 0 min 0 min 0 W/m 16,1 km/h (3 Bft) 97,87 %
28.09.2019 22:28 14,0 C 12,8 C 18,3 C 96 % 1012,7 hPa 0,0 l/m 0 min 0 min 0 W/m 16,1 km/h (3 Bft) 95,74 %
28.09.2019 22:30 14,0 C 12,8 C 18,3 C 96 % 1012,7 hPa 0,0 l/m 0 min 0 min 0 W/m 16,1 km/h (3 Bft) 95,74 %
28.09.2019 22:32 14,0 C 12,8 C 18,3 C 96 % 1012,6 hPa 0,0 l/m 0 min 0 min 0 W/m 6,4 km/h (2 Bft) 95,74 %
28.09.2019 22:34 14,0 C 12,8 C 18,3 C 96 % 1012,7 hPa 0,0 l/m 0 min 0 min 0 W/m 6,4 km/h (2 Bft) 95,65 %
28.09.2019 22:36 14,0 C 12,8 C 18,3 C 96 % 1012,7 hPa 0,0 l/m 0 min 0 min 0 W/m 3,2 km/h (1 Bft) 95,74 %
28.09.2019 22:38 14,0 C 12,8 C 18,3 C 96 % 1012,7 hPa 0,0 l/m 0 min 0 min 0 W/m 12,9 km/h (3 Bft) 95,74 %
28.09.2019 22:40 14,0 C 12,8 C 18,3 C 96 % 1012,8 hPa 0,0 l/m 0 min 0 min 0 W/m 19,3 km/h (3 Bft) 93,62 %
28.09.2019 22:42 14,0 C 12,8 C 18,3 C 96 % 1012,7 hPa 0,0 l/m 0 min 0 min 0 W/m 12,9 km/h (3 Bft) 93,62 %
28.09.2019 22:44 14,0 C 12,8 C 18,3 C 96 % 1012,7 hPa 0,0 l/m 0 min 0 min 0 W/m 12,9 km/h (3 Bft) 95,74 %
28.09.2019 22:46 14,0 C 12,8 C 18,3 C 96 % 1012,7 hPa 0,0 l/m 0 min 0 min 0 W/m 12,9 km/h (3 Bft) 95,65 %
28.09.2019 22:48 14,0 C 12,8 C 18,3 C 96 % 1012,7 hPa 0,0 l/m 0 min 0 min 0 W/m 12,9 km/h (3 Bft) 93,62 %
28.09.2019 22:50 14,0 C 12,8 C 18,3 C 96 % 1012,7 hPa 0,0 l/m 0 min 0 min 0 W/m 16,1 km/h (3 Bft) 95,74 %
28.09.2019 22:52 14,0 C 12,8 C 18,3 C 96 % 1012,7 hPa 0,0 l/m 0 min 0 min 0 W/m 12,9 km/h (3 Bft) 93,62 %
28.09.2019 22:54 14,0 C 12,8 C 18,3 C 96 % 1012,7 hPa 0,0 l/m 0 min 0 min 0 W/m 16,1 km/h (3 Bft) 91,49 %
28.09.2019 22:56 14,0 C 12,8 C 18,3 C 96 % 1012,7 hPa 0,0 l/m 0 min 0 min 0 W/m 16,1 km/h (3 Bft) 93,62 %
28.09.2019 22:58 14,0 C 12,8 C 18,3 C 96 % 1012,7 hPa 0,0 l/m 0 min 0 min 0 W/m 16,1 km/h (3 Bft) 91,30 %
28.09.2019 23:00 14,0 C 12,8 C 18,3 C 96 % 1012,7 hPa 0,0 l/m 0 min 0 min 0 W/m 12,9 km/h (3 Bft) 93,62 %
28.09.2019 23:02 14,0 C 12,8 C 18,3 C 96 % 1012,7 hPa 0,0 l/m 0 min 0 min 0 W/m 6,4 km/h (2 Bft) 91,49 %
28.09.2019 23:04 13,9 C 12,8 C 18,3 C 96 % 1012,7 hPa 0,0 l/m 0 min 0 min 0 W/m 12,9 km/h (3 Bft) 93,62 %
28.09.2019 23:06 13,9 C 12,8 C 18,3 C 96 % 1012,7 hPa 0,0 l/m 0 min 0 min 0 W/m 12,9 km/h (3 Bft) 93,48 %
28.09.2019 23:08 13,9 C 12,8 C 18,3 C 96 % 1012,7 hPa 0,0 l/m 0 min 0 min 0 W/m 12,9 km/h (3 Bft) 95,83 %
28.09.2019 23:10 13,9 C 12,8 C 18,3 C 96 % 1012,6 hPa 0,0 l/m 0 min 0 min 0 W/m 9,7 km/h (2 Bft) 95,65 %
28.09.2019 23:12 13,9 C 12,8 C 18,3 C 96 % 1012,6 hPa 0,0 l/m 0 min 0 min 0 W/m 6,4 km/h (2 Bft) 93,62 %
28.09.2019 23:14 13,9 C 12,8 C 18,3 C 96 % 1012,7 hPa 0,0 l/m 0 min 0 min 0 W/m 16,1 km/h (3 Bft) 95,74 %
28.09.2019 23:16 13,9 C 12,8 C 18,3 C 96 % 1012,6 hPa 0,0 l/m 0 min 0 min 0 W/m 12,9 km/h (3 Bft) 95,74 %
28.09.2019 23:18 13,9 C 12,8 C 18,3 C 96 % 1012,6 hPa 0,0 l/m 0 min 0 min 0 W/m 6,4 km/h (2 Bft) 95,65 %
28.09.2019 23:20 13,9 C 12,8 C 18,3 C 96 % 1012,6 hPa 0,0 l/m 0 min 0 min 0 W/m 16,1 km/h (3 Bft) 95,83 %
28.09.2019 23:22 13,9 C 12,8 C 18,3 C 96 % 1012,6 hPa 0,0 l/m 0 min 0 min 0 W/m 12,9 km/h (3 Bft) 95,65 %
28.09.2019 23:24 13,9 C 12,8 C 18,3 C 96 % 1012,6 hPa 0,0 l/m 0 min 0 min 0 W/m 16,1 km/h (3 Bft) 95,74 %
28.09.2019 23:26 13,9 C 12,8 C 18,3 C 96 % 1012,6 hPa 0,0 l/m 0 min 0 min 0 W/m 6,4 km/h (2 Bft) 95,74 %
28.09.2019 23:28 13,9 C 12,8 C 18,3 C 96 % 1012,6 hPa 0,0 l/m 0 min 0 min 0 W/m 16,1 km/h (3 Bft) 97,87 %
28.09.2019 23:30 13,9 C 12,8 C 18,3 C 96 % 1012,6 hPa 0,0 l/m 0 min 0 min 0 W/m 16,1 km/h (3 Bft) 93,62 %
28.09.2019 23:32 13,9 C 12,8 C 18,3 C 96 % 1012,6 hPa 0,0 l/m 0 min 0 min 0 W/m 3,2 km/h (1 Bft) 95,65 %
28.09.2019 23:34 13,9 C 12,8 C 18,3 C 96 % 1012,6 hPa 0,0 l/m 0 min 0 min 0 W/m 3,2 km/h (1 Bft) 97,87 %
28.09.2019 23:36 13,9 C 12,8 C 18,3 C 96 % 1012,6 hPa 0,0 l/m 0 min 0 min 0 W/m 3,2 km/h (1 Bft) 100,00 %
28.09.2019 23:38 13,9 C 12,8 C 18,3 C 96 % 1012,6 hPa 0,0 l/m 0 min 0 min 0 W/m 6,4 km/h (2 Bft) 97,87 %
28.09.2019 23:40 13,9 C 12,8 C 18,3 C 96 % 1012,6 hPa 0,0 l/m 0 min 0 min 0 W/m 16,1 km/h (3 Bft) 100,00 %
28.09.2019 23:42 13,9 C 12,8 C 18,3 C 96 % 1012,6 hPa 0,0 l/m 0 min 0 min 0 W/m 16,1 km/h (3 Bft) 100,00 %
28.09.2019 23:44 13,9 C 12,8 C 18,3 C 96 % 1012,5 hPa 0,0 l/m 0 min 0 min 0 W/m 12,9 km/h (3 Bft) 97,87 %
28.09.2019 23:46 13,9 C 12,8 C 18,3 C 96 % 1012,5 hPa 0,0 l/m 0 min 0 min 0 W/m 9,7 km/h (2 Bft) 100,00 %
28.09.2019 23:48 13,9 C 12,8 C 18,3 C 96 % 1012,5 hPa 0,0 l/m 0 min 0 min 0 W/m 16,1 km/h (3 Bft) 100,00 %
28.09.2019 23:50 13,9 C 12,8 C 18,3 C 96 % 1012,5 hPa 0,0 l/m 0 min 0 min 0 W/m 12,9 km/h (3 Bft) 100,00 %
28.09.2019 23:52 13,9 C 12,8 C 18,3 C 96 % 1012,4 hPa 0,0 l/m 0 min 0 min 0 W/m 12,9 km/h (3 Bft) 95,74 %
28.09.2019 23:54 13,9 C 12,8 C 18,3 C 96 % 1012,4 hPa 0,0 l/m 0 min 0 min 0 W/m 6,4 km/h (2 Bft) 97,83 %
28.09.2019 23:56 13,9 C 12,8 C 18,3 C 96 % 1012,4 hPa 0,0 l/m 0 min 0 min 0 W/m 16,1 km/h (3 Bft) 100,00 %
28.09.2019 23:58 13,8 C 12,8 C 18,3 C 96 % 1012,4 hPa 0,0 l/m 0 min 0 min 0 W/m 12,9 km/h (3 Bft) 100,00 %
_ Min-Zeit 07:24 06:04 00:00 12:36 00:12 - - - - 21:00 05:42
Minimum _ 13,6 C 12,2 C 16,1 C 75 % 1009,3 hPa - - - - 3,2 km/h (1 Bft) 41,18 %
_ Max-Zeit 13:02 12:32 07:36 21:20 21:18 21:18 12:08 06:08 12:58 05:44 00:00
Maximum _ 17,9 C 22,2 C 18,3 C 96 % 1013,0 hPa 1,0 l/m 4 min 4 min 797 W/m 48,3 km/h
S (6 Bft)
100,00 %
Durchschnitt _ 15,2 C 14,4 C 17,6 C 89 % 1011,5 hPa #5,2 l/m #1:50 h #3:12 h 155 W/m 22,4 km/h (4 Bft) 97,37 %
© 2019 W. Hausmann